FW6030 Weather Reports


Display with metric or nautical units.
time (UTC)temp
F
wind
direction
speed
MPH
gust
MPH
rain 1hr
in
rain 24hr
in
rain mn
in
humidity
%
barometer
mb
20260905044030 82 360 8.0 15.0 0.00 0.00 0.00 76 1015.1
20260905043930 82 360 7.0 18.0 0.00 0.00 0.00 76 1015.0
20260905043832 82 360 8.0 18.0 0.00 0.00 0.00 76 1015.1
20260905043732 82 360 8.0 18.0 0.00 0.00 0.00 76 1015.1
20260905043632 82 360 9.0 18.0 0.00 0.00 0.00 76 1015.1
20260905043532 82 360 7.0 18.0 0.00 0.00 0.00 76 1015.1
20260905043454 82 360 7.0 18.0 0.00 0.00 0.00 76 1015.2
20260905043317 82 360 10.0 18.0 0.00 0.00 0.00 76 1015.2
20260905043218 82 360 10.0 18.0 0.00 0.00 0.00 76 1015.1
20260905043119 82 360 10.0 18.0 0.00 0.00 0.00 76 1015.2
20260905043018 82 360 8.0 16.0 0.00 0.00 0.00 76 1015.2
20260905042920 82 360 7.0 11.0 0.00 0.00 0.00 76 1015.2
20260905042823 82 360 7.0 11.0 0.00 0.00 0.00 76 1015.2
20260905042722 82 360 7.0 13.0 0.00 0.00 0.00 76 1015.2
20260905042627 82 360 7.0 13.0 0.00 0.00 0.00 76 1015.2
20260905042528 82 360 7.0 13.0 0.00 0.00 0.00 76 1015.1
20260905042429 82 360 8.0 13.0 0.00 0.00 0.00 76 1015.1
20260905042330 82 360 8.0 13.0 0.00 0.00 0.00 76 1015.1
20260905042230 82 360 7.0 13.0 0.00 0.00 0.00 76 1015.1
20260905042150 82 360 8.0 14.0 0.00 0.00 0.00 76 1015.1
20260905042029 82 360 8.0 14.0 0.00 0.00 0.00 75 1015.0
20260905041934 82 360 8.0 14.0 0.00 0.00 0.00 75 1015.0
20260905041833 82 360 6.0 17.0 0.00 0.00 0.00 75 1015.0
20260905041734 82 360 5.0 17.0 0.00 0.00 0.00 76 1015.0
20260905041634 82 360 6.0 17.0 0.00 0.00 0.00 76 1015.1
20260905041535 82 360 8.0 17.0 0.00 0.00 0.00 75 1015.0
20260905041435 82 360 9.0 17.0 0.00 0.00 0.00 75 1015.0
20260905041320 82 360 10.0 17.0 0.00 0.00 0.00 75 1015.0
20260905041221 82 360 9.0 17.0 0.00 0.00 0.00 75 1015.1
20260905041123 82 360 8.0 17.0 0.00 0.00 0.00 75 1015.0
20260905041024 82 360 8.0 17.0 0.00 0.00 0.00 75 1015.1
20260905040924 82 360 7.0 14.0 0.00 0.00 0.00 75 1015.1
20260905040825 82 360 9.0 14.0 0.00 0.00 0.00 75 1015.1
20260905040725 82 360 9.0 17.0 0.00 0.00 0.00 75 1015.1
20260905040628 82 360 8.0 17.0 0.00 0.00 0.00 75 1015.1
20260905040529 82 360 8.0 17.0 0.00 0.00 0.00 75 1015.1
20260905040430 82 360 7.0 17.0 0.00 0.00 0.00 75 1015.1
20260905040330 82 360 7.0 17.0 0.00 0.00 0.00 75 1015.1
20260905040232 82 360 9.0 17.0 0.00 0.00 0.00 75 1015.1
20260905040131 82 360 9.0 17.0 0.00 0.00 0.00 75 1015.2
20260905040016 82 360 9.0 17.0 0.00 0.00 0.00 75 1015.1
20260905035917 82 360 8.0 17.0 0.00 0.00 0.00 75 1015.2
20260905035817 82 360 7.0 17.0 0.00 0.00 0.00 75 1015.1
20260905035738 82 360 7.0 17.0 0.00 0.00 0.00 74 1015.2
20260905035616 82 360 8.0 17.0 0.00 0.00 0.00 75 1015.1
20260905035518 83 360 9.0 17.0 0.00 0.00 0.00 74 1015.1
20260905035419 83 360 9.0 17.0 0.00 0.00 0.00 74 1015.1
20260905035340 83 360 9.0 17.0 0.00 0.00 0.00 74 1015.0
20260905035224 83 360 10.0 17.0 0.00 0.00 0.00 74 1015.0
20260905035124 83 360 9.0 17.0 0.00 0.00 0.00 74 1015.1
20260905035045 82 360 9.0 17.0 0.00 0.00 0.00 74 1015.0
20260905034924 83 360 8.0 12.0 0.00 0.00 0.00 74 1015.1
20260905034824 83 360 8.0 13.0 0.00 0.00 0.00 74 1015.1
20260905034725 83 360 8.0 13.0 0.00 0.00 0.00 74 1015.1
20260905034624 83 360 8.0 13.0 0.00 0.00 0.00 74 1015.1
20260905034529 83 360 7.0 13.0 0.00 0.00 0.00 74 1015.1
20260905034451 83 360 7.0 13.0 0.00 0.00 0.00 74 1015.1
20260905034331 83 360 8.0 13.0 0.00 0.00 0.00 74 1015.0
20260905034231 83 360 8.0 13.0 0.00 0.00 0.00 74 1015.0
20260905034131 83 360 9.0 13.0 0.00 0.00 0.00 74 1015.0
20260905034032 83 360 9.0 13.0 0.00 0.00 0.00 74 1015.0
20260905033933 83 360 8.0 13.0 0.00 0.00 0.00 74 1015.1
20260905033837 83 360 8.0 13.0 0.00 0.00 0.00 74 1015.1
20260905033717 83 360 8.0 13.0 0.00 0.00 0.00 73 1015.1
20260905033617 83 360 9.0 15.0 0.00 0.00 0.00 73 1015.1
20260905033538 83 360 9.0 15.0 0.00 0.00 0.00 73 1015.0
20260905033417 83 360 9.0 15.0 0.00 0.00 0.00 73 1015.0
20260905033318 83 360 9.0 15.0 0.00 0.00 0.00 73 1015.1
20260905033239 83 360 9.0 15.0 0.00 0.00 0.00 73 1015.0
20260905033119 83 360 8.0 15.0 0.00 0.00 0.00 73 1015.0
20260905033044 83 360 8.0 15.0 0.00 0.00 0.00 73 1015.0
20260905032924 83 360 8.0 15.0 0.00 0.00 0.00 73 1015.1
20260905032826 83 360 8.0 15.0 0.00 0.00 0.00 73 1015.0
20260905032726 83 360 8.0 15.0 0.00 0.00 0.00 73 1014.9
20260905032627 83 360 8.0 15.0 0.00 0.00 0.00 73 1014.9
20260905032549 83 360 9.0 15.0 0.00 0.00 0.00 73 1014.9
20260905032429 83 360 9.0 15.0 0.00 0.00 0.00 73 1015.0
20260905032333 83 360 9.0 15.0 0.00 0.00 0.00 73 1014.8
20260905032253 83 360 10.0 15.0 0.00 0.00 0.00 73 1015.0
20260905032133 83 161 10.0 15.0 0.00 0.00 0.00 73 1014.9
20260905032033 83 360 10.0 14.0 0.00 0.00 0.00 73 1014.9
20260905031933 83 360 9.0 14.0 0.00 0.00 0.00 73 1014.9
20260905031834 83 360 8.0 14.0 0.00 0.00 0.00 73 1014.8
20260905031735 83 360 7.0 14.0 0.00 0.00 0.00 72 1015.3
20260905031619 83 150 6.0 14.0 0.00 0.00 0.00 72 1015.0
20260905031519 83 360 7.0 14.0 0.00 0.00 0.00 72 1015.0
20260905031440 83 360 8.0 14.0 0.00 0.00 0.00 72 1015.0
20260905031320 83 360 9.0 14.0 0.00 0.00 0.00 72 1015.0
20260905031220 83 360 10.0 14.0 0.00 0.00 0.00 72 1014.9
20260905031121 83 360 9.0 14.0 0.00 0.00 0.00 72 1014.9
20260905031022 83 360 8.0 14.0 0.00 0.00 0.00 72 1014.9
20260905030925 83 360 8.0 14.0 0.00 0.00 0.00 72 1015.0
20260905030826 83 360 8.0 14.0 0.00 0.00 0.00 72 1015.0
20260905030727 83 360 8.0 14.0 0.00 0.00 0.00 72 1014.9
20260905030627 83 360 9.0 14.0 0.00 0.00 0.00 72 1014.9
20260905030528 83 360 10.0 14.0 0.00 0.00 0.00 72 1014.8
20260905030428 83 360 10.0 14.0 0.00 0.00 0.00 72 1014.9
20260905030332 83 360 8.0 14.0 0.00 0.00 0.00 72 1014.9
20260905030233 83 360 7.0 13.0 0.00 0.00 0.00 72 1014.8
20260905030133 83 360 6.0 13.0 0.00 0.00 0.00 71 1014.8
20260905030034 83 360 8.0 13.0 0.00 0.00 0.00 71 1014.9
20260905025934 83 360 8.0 13.0 0.00 0.00 0.00 71 1014.9
20260905025836 83 360 9.0 13.0 0.00 0.00 0.00 71 1014.9
20260905025720 83 360 9.0 13.0 0.00 0.00 0.00 71 1014.8
20260905025640 83 360 9.0 14.0 0.00 0.00 0.00 70 1014.8
20260905025520 83 360 9.0 14.0 0.00 0.00 0.00 70 1014.8
20260905025420 84 360 8.0 14.0 0.00 0.00 0.00 70 1014.7
20260905025320 83 360 9.0 14.0 0.00 0.00 0.00 70 1014.8
20260905025221 83 360 9.0 14.0 0.00 0.00 0.00 70 1014.7
20260905025121 84 360 9.0 14.0 0.00 0.00 0.00 70 1014.7
20260905025025 83 360 9.0 14.0 0.00 0.00 0.00 70 1014.7
20260905024926 83 360 9.0 14.0 0.00 0.00 0.00 70 1014.7
20260905024829 83 360 10.0 14.0 0.00 0.00 0.00 70 1014.7
20260905024728 83 360 9.0 12.0 0.00 0.00 0.00 70 1014.7
20260905024629 83 360 8.0 12.0 0.00 0.00 0.00 70 1014.7
20260905024528 83 360 7.0 12.0 0.00 0.00 0.00 70 1014.7
20260905024429 83 360 6.0 11.0 0.00 0.00 0.00 69 1014.7
20260905024334 83 360 7.0 11.0 0.00 0.00 0.00 69 1014.7
20260905024255 83 360 7.0 11.0 0.00 0.00 0.00 69 1014.6
20260905024135 83 360 6.0 9.0 0.00 0.00 0.00 69 1014.6
20260905024034 83 360 5.0 9.0 0.00 0.00 0.00 69 1014.5
20260905023934 83 360 4.0 6.0 0.00 0.00 0.00 69 1014.6
20260905023833 83 360 4.0 6.0 0.00 0.00 0.00 69 1014.6
20260905023735 83 360 3.0 6.0 0.00 0.00 0.00 69 1014.6
20260905023633 83 360 3.0 6.0 0.00 0.00 0.00 69 1014.7
20260905023518 83 360 3.0 6.0 0.00 0.00 0.00 69 1014.7
20260905023419 83 360 3.0 6.0 0.00 0.00 0.00 69 1014.6
20260905023319 83 360 3.0 6.0 0.00 0.00 0.00 69 1014.6
20260905023219 83 360 3.0 6.0 0.00 0.00 0.00 69 1014.7
20260905023118 83 360 3.0 6.0 0.00 0.00 0.00 69 1014.6
20260905023040 83 360 3.0 6.0 0.00 0.00 0.00 69 1014.6
20260905022939 83 360 3.0 6.0 0.00 0.00 0.00 69 1014.6
20260905022819 83 360 3.0 6.0 0.00 0.00 0.00 69 1014.6
20260905022723 83 360 3.0 5.0 0.00 0.00 0.00 69 1014.5
20260905022624 83 360 3.0 5.0 0.00 0.00 0.00 69 1014.5
20260905022524 84 360 3.0 6.0 0.00 0.00 0.00 69 1014.5
20260905022425 84 360 3.0 6.0 0.00 0.00 0.00 68 1014.5
20260905022345 84 360 3.0 6.0 0.00 0.00 0.00 68 1014.5
20260905022224 84 360 3.0 6.0 0.00 0.00 0.00 68 1014.4
20260905022126 84 360 3.0 6.0 0.00 0.00 0.00 68 1014.4
20260905022030 84 360 3.0 6.0 0.00 0.00 0.00 68 1014.4
20260905021930 84 360 3.0 6.0 0.00 0.00 0.00 68 1014.3
20260905021831 84 360 3.0 6.0 0.00 0.00 0.00 68 1014.3
20260905021732 84 360 3.0 6.0 0.00 0.00 0.00 68 1014.3
20260905021632 84 360 3.0 5.0 0.00 0.00 0.00 68 1014.3
20260905021552 84 360 3.0 6.0 0.00 0.00 0.00 68 1014.3
20260905021417 84 360 3.0 6.0 0.00 0.00 0.00 68 1014.3
20260905021318 84 360 3.0 6.0 0.00 0.00 0.00 68 1014.3
20260905021238 84 360 3.0 6.0 0.00 0.00 0.00 68 1014.3
20260905021118 84 360 4.0 6.0 0.00 0.00 0.00 68 1014.3
20260905021038 84 360 4.0 6.0 0.00 0.00 0.00 68 1014.2
20260905020918 84 161 4.0 9.0 0.00 0.00 0.00 68 1014.2
20260905020839 84 360 4.0 9.0 0.00 0.00 0.00 68 1014.2
20260905020719 84 360 4.0 9.0 0.00 0.00 0.00 68 1014.2
20260905020623 84 360 3.0 9.0 0.00 0.00 0.00 68 1014.1
20260905020523 84 360 3.0 9.0 0.00 0.00 0.00 67 1014.1
20260905020423 84 360 3.0 10.0 0.00 0.00 0.00 67 1014.0
20260905020323 84 360 4.0 10.0 0.00 0.00 0.00 67 1014.1
20260905020224 84 360 4.0 10.0 0.00 0.00 0.00 67 1014.0
20260905020125 84 360 4.0 10.0 0.00 0.00 0.00 67 1014.0
20260905020026 84 360 5.0 10.0 0.00 0.00 0.00 67 1014.0
20260905015927 84 360 5.0 10.0 0.00 0.00 0.00 67 1014.0
20260905015853 84 360 6.0 11.0 0.00 0.00 0.00 67 1014.0
20260905015732 84 360 6.0 11.0 0.00 0.00 0.00 67 1014.0
20260905015631 84 360 6.0 11.0 0.00 0.00 0.00 67 1014.0
20260905015532 84 360 5.0 12.0 0.00 0.00 0.00 67 1014.1
20260905015433 84 360 6.0 12.0 0.00 0.00 0.00 67 1014.2
20260905015333 84 360 6.0 12.0 0.00 0.00 0.00 66 1014.1
20260905015218 85 360 7.0 12.0 0.00 0.00 0.00 66 1014.1
20260905015119 85 360 7.0 12.0 0.00 0.00 0.00 66 1014.1
20260905015019 85 360 7.0 12.0 0.00 0.00 0.00 66 1014.1
20260905014921 85 360 7.0 12.0 0.00 0.00 0.00 66 1014.1
20260905014821 85 360 8.0 12.0 0.00 0.00 0.00 66 1014.2
20260905014721 85 360 8.0 12.0 0.00 0.00 0.00 66 1014.1
20260905014642 85 360 7.0 12.0 0.00 0.00 0.00 66 1014.1
20260905014542 85 360 6.0 12.0 0.00 0.00 0.00 66 1014.1
20260905014426 85 360 6.0 12.0 0.00 0.00 0.00 66 1014.0
20260905014327 85 360 7.0 12.0 0.00 0.00 0.00 66 1014.1
20260905014247 85 360 7.0 12.0 0.00 0.00 0.00 66 1014.0
20260905014147 85 360 6.0 11.0 0.00 0.00 0.00 66 1014.0
20260905014046 85 360 6.0 11.0 0.00 0.00 0.00 66 1014.0
20260905013925 85 360 6.0 11.0 0.00 0.00 0.00 66 1014.0
20260905013826 85 360 7.0 12.0 0.00 0.00 0.00 66 1014.0
20260905013727 85 360 8.0 12.0 0.00 0.00 0.00 66 1014.0
20260905013632 85 360 8.0 12.0 0.00 0.00 0.00 66 1013.9
20260905013533 85 360 8.0 13.0 0.00 0.00 0.00 66 1013.9
20260905013454 85 360 8.0 13.0 0.00 0.00 0.00 66 1014.0
20260905013335 85 360 8.0 13.0 0.00 0.00 0.00 66 1014.0
20260905013235 85 360 8.0 13.0 0.00 0.00 0.00 66 1013.9
20260905013156 85 360 9.0 14.0 0.00 0.00 0.00 66 1013.9
20260905013055 85 360 8.0 14.0 0.00 0.00 0.00 66 1013.9
20260905012920 85 360 8.0 14.0 0.00 0.00 0.00 66 1013.9
20260905012841 85 360 8.0 14.0 0.00 0.00 0.00 66 1013.9
20260905012719 85 360 9.0 14.0 0.00 0.00 0.00 66 1013.8
20260905012620 85 360 10.0 14.0 0.00 0.00 0.00 66 1013.9
20260905012520 85 360 9.0 14.0 0.00 0.00 0.00 66 1013.9
20260905012421 85 360 9.0 14.0 0.00 0.00 0.00 66 1013.9
20260905012322 85 360 8.0 14.0 0.00 0.00 0.00 66 1013.8
20260905012227 85 360 9.0 14.0 0.00 0.00 0.00 66 1013.9
20260905012127 85 360 9.0 14.0 0.00 0.00 0.00 66 1013.8
20260905012028 85 360 8.0 14.0 0.00 0.00 0.00 67 1013.9
20260905011928 85 360 8.0 14.0 0.00 0.00 0.00 67 1013.8
20260905011848 85 360 7.0 14.0 0.00 0.00 0.00 66 1013.9
20260905011728 86 360 9.0 14.0 0.00 0.00 0.00 66 1013.9
20260905011628 86 360 8.0 13.0 0.00 0.00 0.00 66 1013.9
20260905011549 86 360 8.0 13.0 0.00 0.00 0.00 66 1013.8
20260905011433 86 360 8.0 13.0 0.00 0.00 0.00 66 1013.8
20260905011354 86 360 8.0 13.0 0.00 0.00 0.00 66 1013.9
20260905011233 86 360 8.0 13.0 0.00 0.00 0.00 66 1013.8
20260905011153 86 360 9.0 13.0 0.00 0.00 0.00 66 1013.8
20260905011033 86 360 9.0 12.0 0.00 0.00 0.00 66 1013.8
20260905010933 86 360 8.0 11.0 0.00 0.00 0.00 66 1013.8
20260905010834 86 360 7.0 11.0 0.00 0.00 0.00 66 1013.8
20260905010718 86 360 6.0 11.0 0.00 0.00 0.00 66 1013.8
20260905010616 86 360 6.0 11.0 0.00 0.00 0.00 66 1013.8
20260905010536 86 360 6.0 11.0 0.00 0.00 0.00 65 1013.8
20260905010456 86 360 5.0 16.0 0.00 0.00 0.00 66 1013.8
20260905010356 86 360 5.0 16.0 0.00 0.00 0.00 65 1013.7
20260905010236 86 360 6.0 16.0 0.00 0.00 0.00 65 1013.8
20260905010156 86 360 7.0 16.0 0.00 0.00 0.00 65 1013.8
20260905010035 86 360 7.0 16.0 0.00 0.00 0.00 65 1013.7
20260905005920 86 360 8.0 16.0 0.00 0.00 0.00 65 1013.7
20260905005822 87 360 9.0 16.0 0.00 0.00 0.00 65 1013.8
20260905005721 87 360 10.0 16.0 0.00 0.00 0.00 65 1013.7
20260905005620 87 360 11.0 16.0 0.00 0.00 0.00 65 1013.8
20260905005521 87 360 10.0 15.0 0.00 0.00 0.00 65 1013.6
20260905005422 87 360 10.0 16.0 0.00 0.00 0.00 65 1013.7
20260905005321 87 360 9.0 17.0 0.00 0.00 0.00 64 1013.7
20260905005222 87 360 10.0 17.0 0.00 0.00 0.00 64 1013.7
20260905005126 87 360 10.0 17.0 0.00 0.00 0.00 64 1013.7
20260905005027 87 360 10.0 17.0 0.00 0.00 0.00 64 1013.7
20260905004926 87 360 8.0 17.0 0.00 0.00 0.00 64 1013.7
20260905004827 87 360 9.0 17.0 0.00 0.00 0.00 64 1013.7
20260905004727 87 360 10.0 17.0 0.00 0.00 0.00 64 1013.5
20260905004648 87 360 11.0 17.0 0.00 0.00 0.00 64 1013.6
20260905004527 87 360 10.0 17.0 0.00 0.00 0.00 64 1013.6
20260905004427 87 360 9.0 14.0 0.00 0.00 0.00 64 1013.6
20260905004332 87 360 9.0 14.0 0.00 0.00 0.00 63 1013.6
20260905004233 87 360 9.0 15.0 0.00 0.00 0.00 63 1013.5
20260905004133 87 360 9.0 15.0 0.00 0.00 0.00 64 1013.5
20260905004034 87 360 10.0 15.0 0.00 0.00 0.00 63 1013.4
20260905003934 87 360 10.0 19.0 0.00 0.00 0.00 63 1013.5
20260905003834 87 360 11.0 19.0 0.00 0.00 0.00 63 1013.4
20260905003719 88 154 10.0 19.0 0.00 0.00 0.00 63 1013.4
20260905003617 88 360 9.0 19.0 0.00 0.00 0.00 63 1013.4
20260905003517 88 360 9.0 19.0 0.00 0.00 0.00 62 1013.3
20260905003438 88 360 9.0 19.0 0.00 0.00 0.00 62 1013.3
20260905003318 88 360 9.0 19.0 0.00 0.00 0.00 62 1013.3
20260905003219 88 360 10.0 19.0 0.00 0.00 0.00 62 1013.4
20260905003120 88 360 11.0 19.0 0.00 0.00 0.00 62 1013.3
20260905003024 88 360 11.0 17.0 0.00 0.00 0.00 62 1013.3
20260905002924 88 360 12.0 17.0 0.00 0.00 0.00 62 1013.3
20260905002826 88 360 12.0 17.0 0.00 0.00 0.00 61 1013.3
20260905002726 88 360 9.0 17.0 0.00 0.00 0.00 61 1013.3
20260905002646 88 360 8.0 16.0 0.00 0.00 0.00 61 1013.3
20260905002526 88 360 10.0 16.0 0.00 0.00 0.00 61 1013.3
20260905002426 88 360 11.0 16.0 0.00 0.00 0.00 61 1013.3
20260905002330 88 360 12.0 16.0 0.00 0.00 0.00 61 1013.4
20260905002231 88 360 12.0 16.0 0.00 0.00 0.00 60 1013.3
20260905002132 88 360 12.0 16.0 0.00 0.00 0.00 60 1013.3
20260905002033 89 360 11.0 16.0 0.00 0.00 0.00 60 1013.3
20260905001935 89 360 10.0 16.0 0.00 0.00 0.00 60 1013.3
20260905001835 89 360 10.0 16.0 0.00 0.00 0.00 60 1013.3
20260905001720 89 360 10.0 17.0 0.00 0.00 0.00 60 1013.3
20260905001620 89 150 8.0 17.0 0.00 0.00 0.00 60 1013.2
20260905001541 89 360 8.0 17.0 0.00 0.00 0.00 60 1013.2
20260905001420 89 360 9.0 17.0 0.00 0.00 0.00 60 1013.1
20260905001321 89 360 11.0 17.0 0.00 0.00 0.00 60 1013.1
20260905001221 89 360 11.0 17.0 0.00 0.00 0.00 59 1013.2
20260905001121 89 360 11.0 17.0 0.00 0.00 0.00 59 1013.2
20260905001025 89 143 9.0 17.0 0.00 0.00 0.00 59 1013.1
20260905000926 89 360 9.0 15.0 0.00 0.00 0.00 59 1013.1
20260905000827 89 360 8.0 13.0 0.00 0.00 0.00 59 1013.0
20260905000727 89 360 8.0 18.0 0.00 0.00 0.00 59 1013.1
20260905000626 89 360 8.0 18.0 0.00 0.00 0.00 59 1013.1
20260905000527 89 360 7.0 18.0 0.00 0.00 0.00 59 1013.0
20260905000428 89 360 6.0 18.0 0.00 0.00 0.00 59 1013.1
20260905000333 89 360 7.0 18.0 0.00 0.00 0.00 59 1013.0
20260905000233 89 360 8.0 18.0 0.00 0.00 0.00 59 1013.1
20260905000134 89 360 11.0 18.0 0.00 0.00 0.00 58 1013.0
20260905000035 89 360 11.0 18.0 0.00 0.00 0.00 58 1013.0
20260904235935 89 360 11.0 18.0 0.00 0.00 0.00 58 1013.0
20260904235836 90 360 10.0 17.0 0.00 0.00 0.00 58 1013.0
20260904235720 90 360 7.0 18.0 0.00 0.00 0.00 57 1013.0
20260904235641 90 360 5.0 18.0 0.00 0.00 0.00 56 1013.0
20260904235520 90 138 7.0 18.0 0.00 0.00 0.00 56 1012.9
20260904235421 90 360 8.0 18.0 0.00 0.00 0.00 53 1013.0
20260904235321 90 360 9.0 18.0 0.00 0.00 0.00 53 1012.9
20260904235221 90 360 10.0 18.0 0.00 0.00 0.00 53 1012.9
20260904235122 90 360 8.0 18.0 0.00 0.00 0.00 52 1012.9
20260904235022 90 360 8.0 18.0 0.00 0.00 0.00 52 1012.9
20260904234927 90 360 8.0 18.0 0.00 0.00 0.00 52 1012.9
20260904234828 90 360 10.0 18.0 0.00 0.00 0.00 52 1012.9
20260904234727 90 360 12.0 18.0 0.00 0.00 0.00 51 1012.9
20260904234628 91 360 11.0 16.0 0.00 0.00 0.00 51 1012.9
20260904234528 91 360 10.0 15.0 0.00 0.00 0.00 51 1012.9
20260904234430 91 360 9.0 15.0 0.00 0.00 0.00 51 1012.9
20260904234331 91 360 9.0 15.0 0.00 0.00 0.00 51 1012.9
20260904234216 91 360 9.0 15.0 0.00 0.00 0.00 50 1012.9
20260904234116 91 360 10.0 15.0 0.00 0.00 0.00 50 1013.0
20260904234018 91 360 10.0 15.0 0.00 0.00 0.00 50 1012.9
20260904233917 91 360 10.0 15.0 0.00 0.00 0.00 49 1013.0
20260904233818 91 360 10.0 15.0 0.00 0.00 0.00 49 1012.9
20260904233718 91 360 10.0 15.0 0.00 0.00 0.00 49 1012.9
20260904233623 91 360 9.0 15.0 0.00 0.00 0.00 49 1013.0
20260904233524 91 360 9.0 15.0 0.00 0.00 0.00 48 1012.9
20260904233425 91 143 8.0 12.0 0.00 0.00 0.00 48 1012.9
20260904233325 91 360 8.0 13.0 0.00 0.00 0.00 48 1012.9
20260904233225 91 360 7.0 13.0 0.00 0.00 0.00 48 1012.8
20260904233126 91 360 7.0 13.0 0.00 0.00 0.00 47 1012.8
20260904233026 91 360 8.0 13.0 0.00 0.00 0.00 48 1012.8
20260904232931 91 360 9.0 13.0 0.00 0.00 0.00 47 1012.9
20260904232832 91 360 7.0 13.0 0.00 0.00 0.00 47 1012.9
20260904232732 91 360 7.0 13.0 0.00 0.00 0.00 48 1012.9
20260904232631 91 360 8.0 13.0 0.00 0.00 0.00 48 1012.9
20260904232531 91 360 9.0 13.0 0.00 0.00 0.00 47 1012.8
20260904232432 91 360 9.0 13.0 0.00 0.00 0.00 47 1012.8
20260904232317 91 360 9.0 14.0 0.00 0.00 0.00 47 1012.8
20260904232216 91 360 7.0 14.0 0.00 0.00 0.00 47 1012.8
20260904232138 91 360 7.0 14.0 0.00 0.00 0.00 47 1012.9
20260904232017 91 360 7.0 14.0 0.00 0.00 0.00 47 1012.9
20260904231917 91 360 7.0 15.0 0.00 0.00 0.00 47 1012.9
20260904231837 91 360 6.0 15.0 0.00 0.00 0.00 46 1012.9
20260904231716 91 360 6.0 15.0 0.00 0.00 0.00 46 1012.9
20260904231618 91 360 7.0 15.0 0.00 0.00 0.00 46 1012.9
20260904231523 91 360 9.0 15.0 0.00 0.00 0.00 46 1012.9
20260904231424 91 360 9.0 15.0 0.00 0.00 0.00 46 1013.0
20260904231324 91 360 10.0 15.0 0.00 0.00 0.00 46 1013.0
20260904231225 91 360 9.0 15.0 0.00 0.00 0.00 45 1013.0
20260904231126 91 360 9.0 15.0 0.00 0.00 0.00 45 1012.9
20260904231025 91 360 9.0 14.0 0.00 0.00 0.00 45 1013.0
20260904230926 91 360 10.0 14.0 0.00 0.00 0.00 45 1013.0
20260904230830 91 360 9.0 14.0 0.00 0.00 0.00 44 1013.0
20260904230731 91 360 8.0 14.0 0.00 0.00 0.00 45 1013.0
20260904230652 91 360 6.0 14.0 0.00 0.00 0.00 46 1013.1
20260904230532 91 360 4.0 14.0 0.00 0.00 0.00 46 1013.0
20260904230431 91 360 3.0 12.0 0.00 0.00 0.00 46 1013.0
20260904230332 91 360 3.0 12.0 0.00 0.00 0.00 47 1013.0
20260904230233 91 360 3.0 12.0 0.00 0.00 0.00 48 1013.0
20260904230117 91 360 4.0 12.0 0.00 0.00 0.00 47 1013.1
20260904230018 91 360 5.0 12.0 0.00 0.00 0.00 47 1013.1
20260904225919 91 360 7.0 12.0 0.00 0.00 0.00 47 1013.1
20260904225820 91 360 9.0 12.0 0.00 0.00 0.00 47 1013.1
20260904225719 91 360 8.0 16.0 0.00 0.04 0.00 47 1013.1
20260904225619 91 360 8.0 18.0 0.00 0.04 0.00 47 1013.2
20260904225540 91 360 7.0 18.0 0.00 0.04 0.00 47 1013.2
20260904225419 91 360 8.0 18.0 0.00 0.04 0.00 47 1013.1
20260904225324 91 360 8.0 18.0 0.00 0.04 0.00 47 1013.2
20260904225225 91 360 9.0 18.0 0.00 0.04 0.00 47 1013.2
20260904225125 91 360 8.0 18.0 0.00 0.04 0.00 47 1013.2
20260904225026 91 360 10.0 18.0 0.00 0.04 0.00 46 1013.3
20260904224926 91 360 10.0 18.0 0.00 0.04 0.00 46 1013.2
20260904224827 91 360 10.0 18.0 0.00 0.04 0.00 47 1013.2
20260904224747 92 360 10.0 15.0 0.00 0.04 0.00 47 1013.2
20260904224626 92 360 10.0 15.0 0.00 0.04 0.00 47 1013.2
20260904224530 92 360 9.0 15.0 0.00 0.04 0.00 47 1013.2
20260904224430 92 360 7.0 15.0 0.00 0.04 0.00 47 1013.2
20260904224330 92 360 6.0 16.0 0.00 0.04 0.00 47 1013.1
20260904224231 92 360 6.0 16.0 0.00 0.04 0.00 48 1013.2
20260904224131 92 360 8.0 16.0 0.00 0.04 0.00 48 1013.2
20260904224032 92 360 9.0 16.0 0.00 0.04 0.00 48 1013.2
20260904223916 92 360 10.0 16.0 0.00 0.04 0.00 49 1013.3
20260904223816 92 360 10.0 16.0 0.00 0.04 0.00 48 1013.2
20260904223717 92 360 10.0 16.0 0.00 0.04 0.00 48 1013.2
20260904223637 92 360 9.0 16.0 0.00 0.04 0.00 48 1013.3
20260904223517 92 360 8.0 16.0 0.00 0.04 0.00 50 1013.3
20260904223417 92 360 7.0 17.0 0.00 0.04 0.00 50 1013.2
20260904223318 92 360 7.0 17.0 0.00 0.04 0.00 50 1013.2
20260904223222 91 360 7.0 17.0 0.00 0.04 0.00 51 1013.3
20260904223123 91 360 8.0 17.0 0.00 0.04 0.00 50 1013.3
20260904223024 91 360 10.0 17.0 0.00 0.04 0.00 50 1013.3
20260904222924 91 360 10.0 17.0 0.00 0.04 0.00 50 1013.3
20260904222826 91 360 9.0 17.0 0.00 0.04 0.00 50 1013.3
20260904222726 91 360 10.0 17.0 0.00 0.04 0.00 49 1013.3
20260904222631 91 360 10.0 17.0 0.00 0.04 0.00 49 1013.3
20260904222551 91 360 11.0 18.0 0.00 0.04 0.00 50 1013.3
20260904222430 91 360 11.0 20.0 0.00 0.04 0.00 49 1013.3
20260904222331 91 360 11.0 20.0 0.00 0.04 0.00 49 1013.3
20260904222231 91 360 11.0 20.0 0.00 0.04 0.00 49 1013.2
20260904222132 92 360 11.0 20.0 0.00 0.04 0.00 50 1013.3
20260904222033 92 360 11.0 20.0 0.00 0.04 0.00 51 1013.3
20260904221938 92 360 10.0 20.0 0.00 0.04 0.00 51 1013.4
20260904221817 91 360 10.0 20.0 0.00 0.04 0.00 52 1013.3
20260904221718 91 360 10.0 20.0 0.00 0.04 0.00 51 1013.3
20260904221620 92 360 10.0 20.0 0.00 0.04 0.00 52 1013.3
20260904221520 92 360 7.0 18.0 0.00 0.04 0.00 53 1013.3
20260904221420 92 360 6.0 18.0 0.00 0.04 0.00 53 1013.3
20260904221321 92 360 7.0 18.0 0.00 0.04 0.00 53 1013.3
20260904221225 92 360 9.0 18.0 0.00 0.04 0.00 52 1013.3
20260904221125 92 360 10.0 18.0 0.00 0.04 0.00 52 1013.2
20260904221027 92 360 9.0 18.0 0.00 0.04 0.00 51 1013.3
20260904220926 92 360 5.0 18.0 0.00 0.04 0.00 51 1013.2
20260904220827 92 360 4.0 12.0 0.00 0.04 0.00 51 1013.3
20260904220727 92 360 4.0 12.0 0.00 0.04 0.00 51 1013.3
20260904220626 92 360 7.0 12.0 0.00 0.04 0.00 51 1013.2
20260904220530 92 360 6.0 12.0 0.00 0.04 0.00 52 1013.3
20260904220430 92 360 5.0 12.0 0.00 0.04 0.00 53 1013.3
20260904220331 91 360 5.0 12.0 0.00 0.04 0.00 53 1013.3
20260904220232 92 360 6.0 13.0 0.00 0.04 0.00 53 1013.4
20260904220131 91 360 6.0 13.0 0.00 0.04 0.00 52 1013.4
20260904220032 91 360 6.0 13.0 0.00 0.04 0.00 52 1013.4
20260904215916 91 360 6.0 13.0 0.00 0.04 0.00 52 1013.4
20260904215818 91 360 7.0 14.0 0.00 0.04 0.00 52 1013.3
20260904215718 91 360 7.0 14.0 0.00 0.04 0.00 52 1013.4
20260904215618 91 360 6.0 14.0 0.00 0.04 0.00 52 1013.4
20260904215518 91 360 7.0 14.0 0.00 0.04 0.00 52 1013.5
20260904215438 91 360 6.0 14.0 0.00 0.04 0.00 52 1013.4
20260904215337 91 360 4.0 14.0 0.00 0.04 0.00 52 1013.4
20260904215216 91 360 6.0 14.0 0.00 0.04 0.00 52 1013.4
20260904215121 91 360 7.0 14.0 0.00 0.04 0.00 50 1013.5
20260904215022 91 360 8.0 13.0 0.00 0.04 0.00 50 1013.4
20260904214922 91 360 7.0 13.0 0.00 0.04 0.00 53 1013.5
20260904214843 91 360 7.0 13.0 0.00 0.04 0.00 53 1013.5
20260904214716 91 360 5.0 16.0 0.00 0.04 0.00 53 1013.5
20260904214618 91 360 5.0 16.0 0.00 0.04 0.00 55 1013.4
20260904214519 91 360 7.0 16.0 0.00 0.04 0.00 56 1013.4
20260904214422 91 360 8.0 16.0 0.00 0.04 0.00 56 1013.5
20260904214323 90 360 9.0 16.0 0.00 0.04 0.00 56 1013.6
20260904214224 90 360 8.0 16.0 0.00 0.04 0.00 55 1013.6
20260904214124 90 360 10.0 16.0 0.00 0.04 0.00 55 1013.6
20260904214025 90 360 11.0 16.0 0.00 0.04 0.00 54 1013.6
20260904213946 91 360 11.0 15.0 0.00 0.04 0.00 55 1013.7
20260904213825 91 360 8.0 14.0 0.00 0.04 0.00 56 1013.7
20260904213729 91 360 5.0 16.0 0.00 0.04 0.00 57 1013.6
20260904213630 91 360 5.0 16.0 0.00 0.04 0.00 57 1013.6
20260904213532 90 360 7.0 16.0 0.00 0.04 0.00 57 1013.7
20260904213452 91 360 8.0 16.0 0.00 0.04 0.00 56 1013.7
20260904213332 91 360 8.0 16.0 0.00 0.04 0.00 56 1013.7
20260904213233 91 360 9.0 16.0 0.00 0.04 0.00 54 1013.8
20260904213116 91 360 11.0 16.0 0.00 0.04 0.00 54 1013.7
20260904213037 91 360 11.0 16.0 0.00 0.04 0.00 56 1013.8
20260904212917 91 360 11.0 16.0 0.00 0.04 0.00 54 1013.8
20260904212839 91 360 10.0 19.0 0.00 0.04 0.00 57 1013.8
20260904212718 91 360 9.0 19.0 0.00 0.04 0.00 57 1013.8
20260904212618 90 360 8.0 19.0 0.00 0.04 0.00 57 1013.8
20260904212519 90 360 9.0 19.0 0.00 0.04 0.00 56 1013.8
20260904212420 90 360 7.0 19.0 0.00 0.04 0.00 56 1013.8
20260904212325 90 360 8.0 19.0 0.00 0.04 0.00 55 1013.8
20260904212226 90 360 7.0 19.0 0.00 0.04 0.00 56 1013.9
20260904212126 91 360 10.0 19.0 0.00 0.04 0.00 56 1013.8
20260904212027 91 360 10.0 19.0 0.00 0.04 0.00 55 1014.0
20260904211928 91 165 8.0 18.0 0.00 0.04 0.00 55 1014.0
20260904211848 91 360 7.0 18.0 0.00 0.04 0.00 54 1014.0
20260904211728 91 360 7.0 18.0 0.00 0.04 0.00 54 1013.9
20260904211632 91 360 9.0 18.0 0.00 0.04 0.00 54 1013.8
20260904211532 91 360 9.0 18.0 0.00 0.04 0.00 55 1014.0
20260904211432 91 360 8.0 18.0 0.00 0.04 0.00 56 1014.0
20260904211332 91 360 9.0 18.0 0.00 0.04 0.00 55 1013.9
20260904211232 91 360 10.0 18.0 0.00 0.04 0.00 56 1013.9
20260904211133 91 360 10.0 20.0 0.00 0.04 0.00 56 1013.9
20260904211017 91 360 10.0 20.0 0.00 0.04 0.00 55 1014.0
20260904210918 91 360 10.0 20.0 0.00 0.04 0.00 56 1014.0
20260904210819 90 360 10.0 20.0 0.00 0.04 0.00 56 1013.8
20260904210719 90 360 10.0 20.0 0.00 0.04 0.00 57 1013.9
20260904210619 90 360 12.0 20.0 0.00 0.04 0.00 56 1013.9
20260904210520 90 360 12.0 20.0 0.00 0.04 0.00 56 1013.9
20260904210425 90 360 12.0 20.0 0.00 0.04 0.00 57 1014.0
20260904210325 90 360 13.0 20.0 0.00 0.04 0.00 57 1013.9
20260904210226 90 360 10.0 20.0 0.00 0.04 0.00 57 1013.9
20260904210148 90 360 8.0 20.0 0.00 0.04 0.00 59 1013.9
20260904210026 90 360 9.0 19.0 0.00 0.04 0.00 58 1013.9
20260904205927 90 360 13.0 19.0 0.00 0.04 0.00 58 1014.0
20260904205829 90 360 14.0 19.0 0.00 0.04 0.00 58 1013.9
20260904205729 90 360 14.0 19.0 0.00 0.04 0.00 58 1014.0
20260904205632 91 360 12.0 19.0 0.00 0.04 0.00 57 1014.0
20260904205533 91 360 9.0 19.0 0.00 0.04 0.00 57 1014.0
20260904205433 90 360 8.0 19.0 0.00 0.04 0.00 57 1014.0
20260904205354 90 360 7.0 19.0 0.00 0.04 0.00 58 1013.9
20260904205235 90 360 8.0 19.0 0.00 0.04 0.00 58 1014.0
20260904205136 90 360 10.0 19.0 0.00 0.04 0.00 57 1014.0
20260904205035 90 360 11.0 19.0 0.00 0.04 0.00 57 1014.0
20260904204919 90 360 9.0 16.0 0.00 0.04 0.00 58 1014.0
20260904204840 90 360 11.0 15.0 0.00 0.04 0.00 57 1014.0
20260904204720 91 360 9.0 15.0 0.00 0.04 0.00 57 1014.0
20260904204621 91 360 10.0 15.0 0.00 0.04 0.00 56 1014.1
20260904204521 91 360 10.0 15.0 0.00 0.04 0.00 55 1014.0
20260904204421 91 360 10.0 15.0 0.00 0.04 0.00 55 1014.1
20260904204322 91 360 10.0 15.0 0.00 0.04 0.00 55 1014.1
20260904204227 91 360 9.0 15.0 0.00 0.04 0.00 56 1014.1
20260904204128 91 360 9.0 15.0 0.00 0.04 0.00 56 1014.3
20260904204049 91 360 9.0 15.0 0.00 0.04 0.00 56 1014.2
20260904203927 91 360 9.0 15.0 0.00 0.04 0.00 56 1014.2
20260904203828 91 360 10.0 15.0 0.00 0.04 0.00 56 1014.2
20260904203730 91 360 9.0 14.0 0.00 0.04 0.00 56 1014.2
20260904203629 91 360 7.0 14.0 0.00 0.04 0.00 55 1014.2
20260904203534 91 360 5.0 14.0 0.00 0.04 0.00 56 1014.2
20260904203434 91 360 6.0 14.0 0.00 0.04 0.00 57 1014.3
20260904203335 91 360 7.0 15.0 0.00 0.04 0.00 56 1014.3
20260904203217 91 360 8.0 16.0 0.00 0.04 0.00 57 1014.2
20260904203118 91 360 7.0 16.0 0.00 0.04 0.00 58 1014.3
20260904203038 91 360 8.0 16.0 0.00 0.04 0.00 57 1014.3
20260904202921 91 360 8.0 16.0 0.00 0.04 0.00 57 1014.2
20260904202843 91 360 8.0 16.0 0.00 0.04 0.00 57 1014.3
20260904202722 91 360 10.0 16.0 0.00 0.04 0.00 56 1014.3
20260904202622 92 360 9.0 16.0 0.00 0.04 0.00 56 1014.3
20260904202522 92 360 9.0 16.0 0.00 0.04 0.00 56 1014.4
20260904202421 92 360 7.0 12.0 0.00 0.04 0.00 56 1014.3
20260904202323 91 360 7.0 12.0 0.00 0.04 0.00 57 1014.4
20260904202243 91 360 6.0 10.0 0.00 0.04 0.00 57 1014.3
20260904202143 91 360 6.0 10.0 0.00 0.04 0.00 57 1014.4
20260904202027 91 360 5.0 10.0 0.00 0.04 0.00 57 1014.3
20260904201926 91 136 5.0 12.0 0.00 0.04 0.00 57 1014.4
20260904201827 90 360 4.0 12.0 0.00 0.04 0.00 61 1014.4
20260904201729 90 360 3.0 12.0 0.00 0.04 0.00 61 1014.4
20260904201629 90 360 2.0 12.0 0.00 0.04 0.00 61 1014.4
20260904201529 90 360 2.0 18.0 0.00 0.04 0.00 61 1014.4
20260904201434 90 360 4.0 18.0 0.00 0.04 0.00 61 1014.5
20260904201316 89 161 6.0 18.0 0.00 0.04 0.00 61 1014.4
20260904201216 89 360 7.0 18.0 0.00 0.04 0.00 60 1014.5
20260904201116 90 360 8.0 18.0 0.00 0.04 0.00 59 1014.5
20260904201018 90 360 9.0 18.0 0.00 0.04 0.00 60 1014.6
20260904200939 90 360 11.0 18.0 0.00 0.04 0.00 59 1014.5
20260904200818 90 360 11.0 18.0 0.00 0.04 0.00 58 1014.5
20260904200723 90 360 12.0 18.0 0.00 0.04 0.00 58 1014.6
20260904200643 90 360 10.0 18.0 0.00 0.04 0.00 58 1014.5
20260904200516 90 360 7.0 15.0 0.00 0.04 0.00 60 1014.6
20260904200416 90 360 7.0 15.0 0.00 0.04 0.00 59 1014.6
20260904200317 90 360 9.0 15.0 0.00 0.04 0.00 58 1014.5
20260904200217 90 360 11.0 15.0 0.00 0.04 0.00 58 1014.6
20260904200121 90 360 12.0 15.0 0.00 0.04 0.00 57 1014.6
20260904200022 91 360 10.0 15.0 0.00 0.04 0.00 57 1014.6
20260904195942 91 360 10.0 15.0 0.00 0.04 0.00 59 1014.6
20260904195824 91 360 9.0 15.0 0.00 0.04 0.00 59 1014.5
20260904195722 91 360 9.0 15.0 0.00 0.04 0.00 58 1014.5
20260904195643 91 360 9.0 15.0 0.00 0.04 0.00 57 1014.6
20260904195522 91 360 9.0 15.0 0.00 0.04 0.00 59 1014.6
20260904195443 91 360 7.0 15.0 0.00 0.04 0.00 60 1014.6
20260904195327 91 360 5.0 14.0 0.00 0.04 0.00 60 1014.6
20260904195248 91 360 5.0 14.0 0.00 0.04 0.00 61 1014.5
20260904195127 91 360 6.0 14.0 0.00 0.04 0.00 61 1014.7
20260904195027 91 360 8.0 14.0 0.00 0.04 0.00 61 1014.6
20260904194928 91 360 8.0 14.0 0.00 0.04 0.00 60 1014.7
20260904194829 91 360 7.0 14.0 0.00 0.04 0.00 60 1014.7
20260904194729 91 360 4.0 15.0 0.00 0.04 0.00 62 1014.6
20260904194634 91 360 3.0 15.0 0.00 0.04 0.00 61 1014.6
20260904194534 90 360 2.0 15.0 0.00 0.04 0.00 61 1014.6
20260904194416 90 360 5.0 15.0 0.00 0.04 0.00 61 1014.7
20260904194316 90 360 8.0 15.0 0.00 0.04 0.00 59 1014.8
20260904194237 90 360 9.0 16.0 0.00 0.04 0.00 59 1014.8
20260904194135 90 360 9.0 16.0 0.00 0.04 0.00 59 1014.8
20260904194016 90 360 7.0 16.0 0.00 0.04 0.00 60 1014.8
20260904193921 90 360 6.0 16.0 0.00 0.04 0.00 62 1014.9
20260904193822 90 360 5.0 16.0 0.00 0.04 0.00 62 1014.9
20260904193723 90 360 5.0 16.0 0.00 0.04 0.00 62 1015.0
20260904193623 90 360 6.0 16.0 0.00 0.04 0.00 62 1014.9
20260904193523 90 360 8.0 16.0 0.00 0.04 0.00 61 1015.0
20260904193423 90 360 8.0 14.0 0.00 0.04 0.00 61 1014.9
20260904193324 90 360 8.0 14.0 0.00 0.04 0.00 61 1014.9
20260904193228 90 360 8.0 14.0 0.00 0.04 0.00 63 1015.0
20260904193129 90 360 8.0 15.0 0.00 0.04 0.00 64 1014.9
20260904193028 90 165 8.0 15.0 0.00 0.04 0.00 64 1014.9
20260904192928 89 360 9.0 15.0 0.00 0.04 0.00 64 1014.9
20260904192829 89 360 8.0 15.0 0.00 0.04 0.00 64 1014.9
20260904192727 89 360 8.0 15.0 0.00 0.04 0.00 64 1014.9
20260904192628 89 360 7.0 16.0 0.00 0.04 0.00 64 1014.9
20260904192531 89 360 6.0 16.0 0.00 0.04 0.00 64 1014.9
20260904192432 90 360 5.0 17.0 0.00 0.04 0.00 64 1015.0
20260904192333 90 360 5.0 17.0 0.00 0.04 0.00 65 1015.0
20260904192233 90 360 4.0 17.0 0.00 0.04 0.00 65 1014.9
20260904192133 89 109 5.0 17.0 0.00 0.04 0.00 65 1015.0
20260904192054 89 360 8.0 17.0 0.00 0.04 0.00 66 1015.1
20260904191932 88 157 9.0 17.0 0.00 0.04 0.00 65 1015.2
20260904191817 88 360 10.0 17.0 0.00 0.04 0.00 66 1015.1
20260904191717 88 360 11.0 17.0 0.00 0.04 0.00 66 1015.2
20260904191617 88 360 9.0 17.0 0.00 0.04 0.00 66 1015.2
20260904191538 88 131 8.0 17.0 0.00 0.04 0.00 67 1015.1
20260904191418 88 360 6.0 14.0 0.00 0.04 0.00 67 1015.1
20260904191318 88 360 5.0 14.0 0.00 0.04 0.00 68 1015.2
20260904191219 88 360 6.0 14.0 0.00 0.04 0.00 68 1015.2
20260904191143 88 360 6.0 14.0 0.00 0.04 0.00 68 1015.2
20260904191016 88 169 8.0 14.0 0.00 0.04 0.00 67 1015.2
20260904190917 88 360 7.0 16.0 0.00 0.04 0.00 68 1015.3
20260904190817 88 360 7.0 16.0 0.00 0.04 0.00 68 1015.3
20260904190717 88 360 6.0 16.0 0.00 0.04 0.00 68 1015.3
20260904190637 88 360 7.0 16.0 0.00 0.04 0.00 68 1015.3
20260904190516 88 360 9.0 16.0 0.00 0.04 0.00 68 1015.2
20260904190441 88 360 10.0 16.0 0.00 0.04 0.00 67 1015.3
20260904190320 88 360 11.0 16.0 0.00 0.04 0.00 67 1015.4
20260904190219 87 360 11.0 16.0 0.00 0.04 0.00 69 1015.4
20260904190120 87 360 11.0 16.0 0.00 0.04 0.00 69 1015.4
20260904190022 87 360 11.0 14.0 0.00 0.04 0.00 69 1015.4
20260904185922 87 360 10.0 14.0 0.00 0.04 0.00 69 1015.4
20260904185844 87 360 7.0 14.0 0.00 0.04 0.00 69 1015.4
20260904185727 87 360 5.0 14.0 0.00 0.04 0.00 70 1015.4
20260904185627 87 360 6.0 17.0 0.00 0.04 0.00 70 1015.5
20260904185547 87 360 8.0 17.0 0.00 0.04 0.00 69 1015.4
20260904185427 87 360 9.0 17.0 0.00 0.04 0.00 69 1015.5
20260904185347 87 360 9.0 17.0 0.00 0.04 0.00 70 1015.4
20260904185228 87 360 8.0 17.0 0.00 0.04 0.00 70 1015.5
20260904185128 87 360 8.0 17.0 0.00 0.04 0.00 70 1015.5
20260904185029 87 360 9.0 17.0 0.00 0.04 0.00 70 1015.5
20260904184933 87 360 10.0 17.0 0.00 0.04 0.00 69 1015.5
20260904184853 87 360 9.0 17.0 0.00 0.04 0.00 70 1015.6
20260904184732 87 360 6.0 17.0 0.00 0.04 0.00 70 1015.5
20260904184653 87 360 4.0 13.0 0.00 0.04 0.00 71 1015.5
20260904184532 87 360 5.0 13.0 0.00 0.04 0.00 70 1015.5
20260904184432 87 360 7.0 13.0 0.00 0.04 0.00 71 1015.6
20260904184333 87 360 6.0 13.0 0.00 0.04 0.00 71 1015.7
20260904184254 87 360 6.0 13.0 0.00 0.04 0.00 71 1015.7
20260904184118 87 360 4.0 13.0 0.00 0.04 0.00 71 1015.7
20260904184018 87 360 5.0 13.0 0.00 0.04 0.00 71 1015.7
20260904183918 87 360 6.0 13.0 0.00 0.04 0.00 71 1015.9
20260904183817 87 360 8.0 13.0 0.00 0.04 0.00 71 1015.8
20260904183718 87 360 7.0 13.0 0.00 0.04 0.00 70 1015.8
20260904183618 87 360 6.0 13.0 0.00 0.04 0.00 72 1015.8
20260904183519 87 360 5.0 13.0 0.00 0.04 0.00 72 1015.8
20260904183423 87 360 5.0 13.0 0.00 0.04 0.00 72 1015.8
20260904183343 86 360 5.0 13.0 0.00 0.04 0.00 71 1015.8
20260904183222 87 360 6.0 12.0 0.00 0.04 0.00 71 1015.9
20260904183123 87 360 6.0 12.0 0.00 0.04 0.00 72 1015.9
20260904183022 87 360 8.0 12.0 0.00 0.04 0.00 72 1015.8
20260904182921 86 162 9.0 14.0 0.00 0.04 0.00 71 1015.9
20260904182822 87 360 9.0 14.0 0.00 0.04 0.00 71 1015.8
20260904182721 87 360 8.0 14.0 0.00 0.04 0.00 72 1015.8
20260904182620 86 360 8.0 14.0 0.00 0.04 0.00 71 1015.8
20260904182524 86 360 9.0 14.0 0.00 0.04 0.00 72 1015.8
20260904182426 86 140 9.0 14.0 0.00 0.04 0.00 72 1015.8
20260904182327 86 360 9.0 14.0 0.00 0.04 0.00 72 1015.8
20260904182227 86 157 7.0 14.0 0.00 0.04 0.00 72 1015.8
20260904182127 86 360 4.0 14.0 0.00 0.04 0.00 72 1015.8
20260904182029 86 360 3.0 12.0 0.00 0.04 0.00 72 1015.8
20260904181934 86 360 3.0 12.0 0.00 0.04 0.00 72 1015.8
20260904181833 86 360 3.0 12.0 0.00 0.04 0.00 73 1015.8
20260904181753 86 360 4.0 12.0 0.00 0.04 0.00 73 1015.9
20260904181632 86 360 4.0 12.0 0.00 0.04 0.00 72 1015.8
20260904181533 86 360 5.0 12.0 0.00 0.04 0.00 73 1015.9
20260904181434 86 360 5.0 12.0 0.00 0.04 0.00 74 1015.9
20260904181354 86 360 4.0 12.0 0.00 0.04 0.00 74 1015.9
20260904181218 85 360 4.0 11.0 0.00 0.04 0.00 73 1015.8
20260904181120 85 360 4.0 11.0 0.00 0.04 0.00 73 1015.9
20260904181041 85 360 5.0 11.0 0.00 0.04 0.00 73 1015.9
20260904180919 85 360 5.0 11.0 0.00 0.04 0.00 73 1015.9
20260904180820 85 360 4.0 11.0 0.00 0.04 0.00 74 1015.9
20260904180721 85 360 5.0 11.0 0.00 0.04 0.00 74 1015.9
20260904180642 85 360 5.0 11.0 0.00 0.04 0.00 74 1015.9
20260904180522 85 360 6.0 11.0 0.00 0.04 0.00 74 1015.9
20260904180426 85 360 6.0 11.0 0.00 0.04 0.00 74 1016.0
20260904180327 85 360 6.0 11.0 0.00 0.04 0.00 74 1015.9
20260904180227 85 360 5.0 11.0 0.00 0.04 0.00 74 1016.0
20260904180148 85 360 5.0 11.0 0.00 0.04 0.00 74 1015.9
20260904180027 84 360 6.0 11.0 0.00 0.04 0.00 75 1015.9
20260904175929 84 360 6.0 11.0 0.00 0.04 0.00 75 1015.9
20260904175831 84 360 7.0 11.0 0.00 0.04 0.00 75 1016.0
20260904175733 84 360 6.0 11.0 0.00 0.04 0.00 75 1016.0
20260904175632 84 360 5.0 11.0 0.00 0.04 0.00 75 1016.0
20260904175534 84 360 4.0 11.0 0.00 0.04 0.00 74 1016.0
20260904175434 84 360 4.0 11.0 0.00 0.04 0.00 74 1016.1
20260904175334 84 360 5.0 11.0 0.00 0.04 0.00 74 1016.1
20260904175234 84 360 7.0 11.0 0.00 0.04 0.00 75 1016.1
20260904175135 84 360 7.0 11.0 0.00 0.04 0.00 75 1016.1
20260904175016 84 360 5.0 10.0 0.00 0.04 0.00 75 1016.1
20260904174916 84 360 4.0 10.0 0.00 0.04 0.00 75 1016.2
20260904174818 84 173 3.0 10.0 0.00 0.04 0.00 75 1016.1
20260904174717 84 360 4.0 10.0 0.00 0.04 0.00 75 1016.1
20260904174618 84 360 5.0 10.0 0.00 0.04 0.00 75 1016.1
20260904174519 84 360 5.0 10.0 0.00 0.04 0.00 75 1016.2
20260904174419 84 360 5.0 12.0 0.00 0.04 0.00 75 1016.2
20260904174344 84 360 5.0 12.0 0.00 0.04 0.00 75 1016.3
20260904174223 84 360 5.0 12.0 0.00 0.04 0.00 75 1016.3
20260904174124 84 360 6.0 12.0 0.00 0.04 0.00 75 1016.3
20260904174025 84 360 6.0 12.0 0.00 0.04 0.00 75 1016.3
20260904173925 84 360 6.0 12.0 0.00 0.04 0.00 75 1016.3
20260904173825 84 360 7.0 12.0 0.00 0.04 0.00 76 1016.2
20260904173746 84 360 7.0 12.0 0.00 0.04 0.00 76 1016.2
20260904173629 84 360 7.0 12.0 0.00 0.04 0.00 76 1016.2
20260904173529 84 360 6.0 9.0 0.00 0.04 0.00 76 1016.2
20260904173428 84 360 5.0 9.0 0.00 0.04 0.00 76 1016.2
20260904173349 84 360 5.0 10.0 0.00 0.04 0.00 76 1016.2
20260904173228 84 360 4.0 10.0 0.00 0.04 0.00 76 1016.2
20260904173129 84 360 5.0 10.0 0.00 0.04 0.00 76 1016.2
20260904173029 84 360 5.0 10.0 0.00 0.04 0.00 76 1016.3
20260904172929 84 360 5.0 11.0 0.00 0.04 0.00 76 1016.4
20260904172835 84 139 5.0 11.0 0.00 0.04 0.00 76 1016.3
20260904172754 84 194 5.0 13.0 0.00 0.04 0.00 76 1016.3
20260904172634 84 360 4.0 13.0 0.00 0.04 0.00 76 1016.4
20260904172555 84 360 4.0 15.0 0.00 0.04 0.00 76 1016.4
20260904172434 83 360 5.0 15.0 0.00 0.04 0.00 77 1016.3
20260904172356 84 360 5.0 15.0 0.00 0.04 0.00 77 1016.4
20260904172234 83 360 6.0 15.0 0.00 0.04 0.00 77 1016.4
20260904172134 83 360 7.0 15.0 0.00 0.04 0.00 77 1016.4
20260904172019 83 360 9.0 15.0 0.00 0.04 0.00 76 1016.4
20260904171939 83 360 10.0 15.0 0.00 0.04 0.00 76 1016.4
20260904171839 83 360 10.0 15.0 0.00 0.04 0.00 77 1016.3
20260904171720 83 360 10.0 15.0 0.00 0.04 0.00 77 1016.4
20260904171621 83 360 8.0 14.0 0.00 0.04 0.00 77 1016.4
20260904171522 83 360 6.0 14.0 0.00 0.04 0.00 77 1016.4
20260904171442 83 360 6.0 14.0 0.00 0.04 0.00 78 1016.3
20260904171321 83 360 6.0 14.0 0.00 0.04 0.00 77 1016.3
20260904171226 83 360 6.0 14.0 0.00 0.04 0.00 77 1016.4
20260904171126 83 360 7.0 14.0 0.00 0.04 0.00 77 1016.4
20260904171027 83 360 7.0 14.0 0.00 0.04 0.00 77 1016.4
20260904170927 83 360 6.0 14.0 0.00 0.04 0.00 77 1016.5
20260904170827 83 360 4.0 11.0 0.00 0.04 0.00 78 1016.4
20260904170748 83 360 3.0 12.0 0.00 0.04 0.00 78 1016.4
20260904170627 83 360 3.0 12.0 0.00 0.04 0.00 78 1016.4
20260904170532 83 360 3.0 12.0 0.00 0.04 0.00 78 1016.4
20260904170431 83 360 3.0 12.0 0.00 0.04 0.00 78 1016.5
20260904170332 83 360 4.0 14.0 0.00 0.04 0.00 78 1016.5
20260904170234 83 360 5.0 14.0 0.00 0.04 0.00 78 1016.4
20260904170132 83 360 6.0 14.0 0.00 0.04 0.00 78 1016.5
20260904170033 83 360 7.0 14.0 0.00 0.04 0.00 78 1016.4
20260904165917 83 360 7.0 14.0 0.00 0.04 0.00 78 1016.4
20260904165819 83 360 8.0 14.0 0.00 0.04 0.00 78 1016.4
20260904165718 83 360 10.0 14.0 0.00 0.04 0.00 78 1016.4
20260904165638 83 360 8.0 14.0 0.00 0.04 0.00 78 1016.4
20260904165517 83 360 6.0 14.0 0.00 0.04 0.00 78 1016.3
20260904165418 83 360 4.0 9.0 0.00 0.04 0.00 79 1016.3
20260904165318 83 360 4.0 12.0 0.00 0.04 0.00 79 1016.3
20260904165223 83 360 4.0 12.0 0.00 0.04 0.00 78 1016.4
20260904165123 83 360 5.0 12.0 0.00 0.04 0.00 78 1016.3
20260904165022 83 360 4.0 12.0 0.00 0.04 0.00 79 1016.3
20260904164921 83 360 4.0 12.0 0.00 0.04 0.00 79 1016.4
20260904164822 83 360 4.0 12.0 0.00 0.04 0.00 79 1016.3
20260904164722 83 360 3.0 12.0 0.00 0.04 0.00 79 1016.3
20260904164622 83 360 3.0 12.0 0.00 0.04 0.00 79 1016.2
20260904164527 83 360 4.0 12.0 0.00 0.04 0.00 79 1016.2
20260904164428 83 360 6.0 12.0 0.00 0.04 0.00 80 1016.3
20260904164327 83 360 7.0 12.0 0.00 0.04 0.00 80 1016.1
20260904164228 83 360 6.0 11.0 0.00 0.04 0.00 80 1016.2
20260904164128 83 360 6.0 11.0 0.00 0.04 0.00 80 1016.1
20260904164028 83 360 6.0 11.0 0.00 0.04 0.00 80 1016.1
20260904163929 83 360 6.0 11.0 0.00 0.04 0.00 80 1016.2
20260904163849 83 360 6.0 11.0 0.00 0.04 0.00 80 1016.2
20260904163733 83 360 7.0 11.0 0.00 0.04 0.00 80 1016.1
20260904163632 83 360 7.0 11.0 0.00 0.04 0.00 80 1016.1
20260904163532 83 360 7.0 11.0 0.00 0.04 0.00 80 1016.1
20260904163433 83 360 6.0 10.0 0.00 0.04 0.00 80 1016.2
20260904163333 83 360 5.0 10.0 0.00 0.04 0.00 80 1016.1
20260904163235 83 360 4.0 10.0 0.00 0.04 0.00 80 1016.2
20260904163120 83 360 2.0 10.0 0.00 0.04 0.00 81 1016.2
20260904163040 83 360 2.0 10.0 0.00 0.04 0.00 81 1016.2
20260904162918 82 360 1.0 10.0 0.00 0.04 0.00 81 1016.2
20260904162819 82 360 2.0 10.0 0.00 0.04 0.00 81 1016.2
20260904162720 82 360 3.0 10.0 0.00 0.04 0.00 81 1016.2
20260904162641 82 360 4.0 10.0 0.00 0.04 0.00 81 1016.2
20260904162520 82 169 3.0 10.0 0.00 0.04 0.00 81 1016.2
20260904162421 82 360 2.0 6.0 0.00 0.04 0.00 82 1016.2
20260904162341 82 360 2.0 9.0 0.00 0.04 0.00 82 1016.2
20260904162224 82 360 2.0 9.0 0.00 0.04 0.00 82 1016.2
20260904162144 82 360 2.0 9.0 0.00 0.04 0.00 82 1016.2
20260904162024 82 360 3.0 12.0 0.00 0.04 0.00 82 1016.2
20260904161924 82 360 4.0 12.0 0.00 0.04 0.00 82 1016.2
20260904161825 82 360 4.0 12.0 0.00 0.04 0.00 82 1016.2
20260904161745 82 360 3.0 12.0 0.00 0.04 0.00 82 1016.1
20260904161625 82 360 3.0 12.0 0.00 0.04 0.00 82 1016.2
20260904161530 82 360 4.0 12.0 0.00 0.04 0.00 82 1016.1
20260904161430 82 360 5.0 12.0 0.00 0.04 0.00 82 1016.1
20260904161351 82 360 5.0 12.0 0.00 0.04 0.00 82 1016.1
20260904161230 82 360 5.0 12.0 0.00 0.04 0.00 82 1016.1
20260904161131 82 360 4.0 12.0 0.00 0.04 0.00 82 1016.1
20260904161032 82 360 3.0 11.0 0.00 0.04 0.00 83 1016.1
20260904160933 82 360 1.0 9.0 0.00 0.04 0.00 83 1016.1
20260904160854 82 360 2.0 9.0 0.00 0.04 0.00 83 1016.1
20260904160757 82 222 2.0 9.0 0.00 0.04 0.00 83 1016.1
20260904160617 82 360 3.0 9.0 0.00 0.04 0.00 84 1016.1
20260904160518 82 360 3.0 9.0 0.00 0.04 0.00 84 1016.1
20260904160418 81 360 3.0 9.0 0.00 0.04 0.00 84 1016.1
20260904160318 81 360 2.0 9.0 0.00 0.04 0.00 83 1016.1
20260904160219 81 360 3.0 9.0 0.00 0.04 0.00 83 1016.1
20260904160119 81 360 4.0 9.0 0.00 0.04 0.00 83 1016.1
20260904160023 81 360 5.0 9.0 0.00 0.04 0.00 83 1016.0
20260904155924 81 360 5.0 9.0 0.00 0.04 0.00 83 1016.1
20260904155826 81 360 5.0 8.0 0.00 0.04 0.00 83 1016.1
20260904155725 81 360 5.0 8.0 0.00 0.04 0.00 83 1016.1
20260904155628 81 360 4.0 6.0 0.00 0.04 0.00 83 1016.2
20260904155528 81 360 3.0 6.0 0.00 0.04 0.00 83 1016.1
20260904155449 81 360 3.0 6.0 0.00 0.04 0.00 83 1016.2
20260904155333 81 360 3.0 6.0 0.00 0.04 0.00 83 1016.1
20260904155233 81 360 2.0 8.0 0.00 0.04 0.00 83 1016.1
20260904155133 81 360 3.0 8.0 0.00 0.04 0.00 84 1016.1
20260904155034 81 360 2.0 8.0 0.00 0.04 0.00 84 1016.0
20260904154954 81 360 2.0 8.0 0.00 0.04 0.00 84 1016.1
20260904154834 81 360 2.0 8.0 0.00 0.04 0.00 84 1016.1
20260904154718 81 360 1.0 10.0 0.00 0.04 0.00 84 1016.0
20260904154617 81 360 2.0 10.0 0.00 0.04 0.00 84 1016.0
20260904154517 81 360 3.0 10.0 0.00 0.04 0.00 84 1016.0
20260904154417 81 360 3.0 10.0 0.00 0.04 0.00 84 1016.0
20260904154317 81 360 3.0 10.0 0.00 0.04 0.00 84 1016.0
20260904154219 81 360 3.0 10.0 0.00 0.04 0.00 84 1016.1
20260904154118 81 360 2.0 10.0 0.00 0.04 0.00 84 1016.1
20260904154019 81 360 3.0 10.0 0.00 0.04 0.00 84 1016.1
20260904153923 81 360 4.0 10.0 0.00 0.04 0.00 84 1016.0
20260904153824 81 360 4.0 10.0 0.00 0.04 0.00 84 1016.0
20260904153725 81 360 4.0 10.0 0.00 0.04 0.00 84 1016.0
20260904153625 81 360 3.0 10.0 0.00 0.04 0.00 84 1015.9
20260904153526 81 360 3.0 8.0 0.00 0.04 0.00 84 1015.9
20260904153427 81 360 4.0 8.0 0.00 0.04 0.00 84 1015.9
20260904153332 81 360 3.0 11.0 0.00 0.04 0.00 84 1016.0
20260904153232 81 360 3.0 11.0 0.00 0.04 0.00 84 1015.9
20260904153133 81 360 3.0 11.0 0.00 0.04 0.00 84 1016.0
20260904153034 81 360 3.0 11.0 0.00 0.04 0.00 84 1015.9
20260904152935 81 360 3.0 11.0 0.00 0.04 0.00 84 1016.0
20260904152817 81 360 3.0 11.0 0.00 0.04 0.00 84 1016.0
20260904152720 81 360 4.0 11.0 0.00 0.04 0.00 84 1015.9
20260904152620 81 360 5.0 11.0 0.00 0.04 0.00 84 1015.9
20260904152521 81 360 6.0 11.0 0.00 0.04 0.00 84 1016.0
20260904152442 81 360 6.0 11.0 0.00 0.04 0.00 84 1015.9
20260904152322 81 360 5.0 11.0 0.00 0.04 0.00 84 1015.9
20260904152222 81 360 4.0 11.0 0.00 0.04 0.00 84 1015.8
20260904152122 81 360 5.0 11.0 0.00 0.04 0.00 84 1015.9
20260904152026 81 360 5.0 10.0 0.00 0.04 0.00 85 1015.9
20260904151947 81 360 5.0 10.0 0.00 0.04 0.00 85 1015.9
20260904151827 81 360 4.0 10.0 0.00 0.04 0.00 85 1015.9
20260904151727 81 360 4.0 10.0 0.00 0.04 0.00 85 1015.8
20260904151648 81 360 4.0 10.0 0.00 0.04 0.00 85 1015.9
20260904151527 80 360 4.0 10.0 0.00 0.04 0.00 85 1015.8
20260904151428 80 360 4.0 10.0 0.00 0.04 0.00 85 1015.9
20260904151329 80 360 3.0 10.0 0.00 0.04 0.00 85 1015.9
20260904151234 80 360 3.0 10.0 0.00 0.04 0.00 85 1015.8
20260904151154 80 360 3.0 10.0 0.00 0.04 0.00 85 1015.8
20260904151054 80 360 3.0 12.0 0.00 0.04 0.00 85 1015.8
20260904150933 80 360 3.0 12.0 0.00 0.04 0.00 85 1015.9
20260904150833 80 360 3.0 12.0 0.00 0.04 0.00 85 1015.9
20260904150735 80 360 3.0 12.0 0.00 0.04 0.00 85 1016.0
20260904150634 80 360 3.0 12.0 0.00 0.04 0.00 85 1016.0
20260904150519 80 360 4.0 12.0 0.00 0.04 0.00 85 1015.9
20260904150419 80 360 5.0 12.0 0.00 0.04 0.00 85 1016.0
20260904150320 80 360 5.0 12.0 0.00 0.04 0.00 85 1016.0
20260904150219 80 360 6.0 12.0 0.00 0.04 0.00 85 1016.0
20260904150120 80 360 5.0 12.0 0.00 0.04 0.00 85 1016.0
20260904150021 80 360 4.0 12.0 0.00 0.04 0.00 85 1016.0
20260904145922 80 360 4.0 12.0 0.00 0.04 0.00 85 1016.1
20260904145828 80 360 5.0 12.0 0.00 0.04 0.00 85 1016.0
20260904145727 80 360 5.0 12.0 0.00 0.04 0.00 85 1016.1
20260904145627 81 360 6.0 12.0 0.00 0.04 0.00 85 1016.0
20260904145528 81 360 5.0 11.0 0.00 0.04 0.00 85 1016.1
20260904145448 81 360 4.0 11.0 0.00 0.04 0.00 86 1016.1
20260904145328 81 360 4.0 11.0 0.00 0.04 0.00 86 1016.0
20260904145228 80 360 3.0 11.0 0.00 0.04 0.00 85 1016.0
20260904145133 80 360 3.0 11.0 0.00 0.04 0.00 85 1016.1
20260904145034 81 360 3.0 10.0 0.00 0.04 0.00 85 1016.2
20260904144935 81 360 3.0 9.0 0.00 0.04 0.00 85 1016.1
20260904144816 81 360 3.0 9.0 0.00 0.04 0.00 85 1016.1
20260904144716 81 360 3.0 9.0 0.00 0.04 0.00 85 1016.2
20260904144638 81 360 3.0 9.0 0.00 0.04 0.00 85 1016.1
20260904144539 81 360 4.0 9.0 0.00 0.04 0.00 85 1016.2
20260904144423 81 360 4.0 9.0 0.00 0.04 0.00 85 1016.2
20260904144344 81 360 3.0 9.0 0.00 0.04 0.00 85 1016.2
20260904144224 81 360 2.0 8.0 0.00 0.04 0.00 85 1016.2
20260904144144 81 360 2.0 8.0 0.00 0.04 0.00 85 1016.2
20260904144023 81 226 2.0 8.0 0.00 0.04 0.00 85 1016.2
20260904143923 80 360 3.0 8.0 0.00 0.04 0.00 85 1016.2
20260904143823 80 360 3.0 8.0 0.00 0.04 0.00 85 1016.2
20260904143724 80 360 3.0 8.0 0.00 0.04 0.00 85 1016.2
20260904143629 80 360 3.0 8.0 0.00 0.04 0.00 85 1016.2
20260904143529 80 360 3.0 8.0 0.00 0.04 0.00 85 1016.2
20260904143430 80 360 3.0 6.0 0.00 0.04 0.00 85 1016.2
20260904143330 80 360 3.0 8.0 0.00 0.04 0.00 85 1016.2
20260904143231 80 360 3.0 8.0 0.00 0.04 0.00 85 1016.2
20260904143131 80 360 3.0 8.0 0.00 0.04 0.00 85 1016.2
20260904143052 80 360 2.0 8.0 0.00 0.04 0.00 85 1016.2
20260904142935 80 360 2.0 8.0 0.00 0.04 0.00 85 1016.1
20260904142834 80 360 2.0 8.0 0.00 0.04 0.00 85 1016.2
20260904142733 80 360 3.0 8.0 0.00 0.04 0.00 85 1016.2
20260904142633 80 360 3.0 8.0 0.00 0.04 0.00 85 1016.2
20260904142534 80 360 2.0 8.0 0.00 0.04 0.00 85 1016.2
20260904142434 80 360 2.0 5.0 0.00 0.04 0.00 85 1016.1
20260904142334 80 360 2.0 5.0 0.00 0.04 0.00 85 1016.1
20260904142219 80 360 2.0 5.0 0.00 0.04 0.00 86 1016.2
20260904142119 80 360 2.0 5.0 0.00 0.04 0.00 86 1016.2
20260904142019 80 360 3.0 5.0 0.00 0.04 0.00 86 1016.1
20260904141940 80 360 2.0 6.0 0.00 0.04 0.00 86 1016.1
20260904141819 80 360 3.0 6.0 0.00 0.04 0.00 86 1016.1
20260904141719 80 360 2.0 6.0 0.00 0.04 0.00 86 1016.1
20260904141620 80 360 2.0 6.0 0.00 0.04 0.00 86 1016.1
20260904141525 80 360 2.0 6.0 0.00 0.04 0.00 86 1016.0
20260904141446 80 360 3.0 6.0 0.00 0.04 0.00 86 1016.1
20260904141326 80 360 3.0 6.0 0.00 0.04 0.00 86 1016.1
20260904141225 80 360 3.0 6.0 0.00 0.04 0.00 86 1016.1
20260904141125 80 360 3.0 6.0 0.00 0.04 0.00 86 1016.1
20260904141026 80 360 2.0 5.0 0.00 0.04 0.00 86 1016.0
20260904140926 80 360 2.0 5.0 0.00 0.04 0.00 86 1016.1
20260904140847 80 360 2.0 5.0 0.00 0.04 0.00 86 1016.1
20260904140747 80 360 2.0 6.0 0.00 0.04 0.00 87 1016.0
20260904140631 80 360 2.0 9.0 0.00 0.04 0.00 86 1016.1
20260904140530 80 360 3.0 9.0 0.00 0.04 0.00 87 1016.0
20260904140431 80 360 2.0 9.0 0.00 0.04 0.00 87 1016.0
20260904140352 80 360 2.0 9.0 0.00 0.04 0.00 87 1016.0
20260904140230 80 360 2.0 9.0 0.00 0.04 0.00 87 1016.0
20260904140132 80 360 3.0 9.0 0.00 0.04 0.00 87 1015.9
20260904140032 80 360 4.0 9.0 0.00 0.04 0.00 87 1016.0
20260904135917 80 360 3.0 9.0 0.00 0.04 0.00 87 1016.0
20260904135819 80 360 3.0 9.0 0.00 0.04 0.00 87 1016.0
20260904135718 80 360 4.0 9.0 0.00 0.04 0.00 87 1015.9
20260904135619 80 360 5.0 9.0 0.00 0.04 0.00 87 1015.9
20260904135519 80 360 6.0 9.0 0.00 0.04 0.00 87 1015.9
20260904135420 80 360 5.0 9.0 0.00 0.04 0.00 87 1016.0
20260904135320 80 360 4.0 9.0 0.00 0.04 0.00 87 1016.0
20260904135225 80 360 4.0 9.0 0.00 0.04 0.00 87 1015.9
20260904135124 80 360 3.0 9.0 0.00 0.04 0.00 87 1015.9
20260904135025 80 360 4.0 9.0 0.00 0.04 0.00 87 1016.0
20260904134927 80 360 4.0 9.0 0.00 0.04 0.00 87 1015.9
20260904134828 80 360 5.0 9.0 0.00 0.04 0.00 87 1015.9
20260904134728 80 360 4.0 8.0 0.00 0.04 0.00 87 1015.9
20260904134648 80 360 3.0 8.0 0.00 0.04 0.00 87 1016.0
20260904134547 80 360 3.0 6.0 0.00 0.04 0.00 87 1015.9
20260904134448 80 360 3.0 5.0 0.00 0.04 0.00 87 1015.9
20260904134331 80 360 3.0 5.0 0.00 0.04 0.00 88 1015.9
20260904134231 80 203 3.0 4.0 0.00 0.04 0.00 88 1016.0
20260904134131 80 360 2.0 4.0 0.00 0.04 0.00 88 1016.0
20260904134032 80 360 1.0 4.0 0.00 0.04 0.00 88 1016.0
20260904133933 80 360 1.0 3.0 0.00 0.04 0.00 88 1016.0
20260904133833 80 360 0.0 3.0 0.00 0.04 0.00 88 1016.0
20260904133737 80 360 0.0 5.0 0.00 0.04 0.00 88 1016.0
20260904133617 80 360 1.0 5.0 0.00 0.04 0.00 88 1016.0
20260904133517 79 360 1.0 5.0 0.00 0.04 0.00 88 1015.9
20260904133438 79 360 1.0 5.0 0.00 0.04 0.00 88 1016.0
20260904133318 79 360 1.0 5.0 0.00 0.04 0.00 88 1015.9
20260904133217 79 360 2.0 5.0 0.00 0.04 0.00 88 1016.0
20260904133117 79 165 2.0 5.0 0.00 0.04 0.00 88 1016.0
20260904133038 79 163 2.0 5.0 0.00 0.04 0.00 88 1015.9
20260904132921 79 360 2.0 5.0 0.00 0.04 0.00 88 1015.9
20260904132823 79 360 2.0 5.0 0.00 0.04 0.00 88 1015.8
20260904132722 79 360 2.0 5.0 0.00 0.04 0.00 88 1015.8
20260904132622 79 360 3.0 5.0 0.00 0.04 0.00 88 1015.9
20260904132524 79 360 3.0 5.0 0.00 0.04 0.00 88 1015.8
20260904132425 79 360 3.0 6.0 0.00 0.04 0.00 88 1015.8
20260904132325 79 360 3.0 6.0 0.00 0.04 0.00 88 1015.8
20260904132230 79 360 2.0 6.0 0.00 0.04 0.00 88 1015.8
20260904132130 79 360 3.0 6.0 0.00 0.04 0.00 88 1015.8
20260904132031 79 360 3.0 6.0 0.00 0.04 0.00 88 1015.8
20260904131930 79 360 3.0 6.0 0.00 0.04 0.00 88 1015.8
20260904131851 79 360 3.0 6.0 0.00 0.04 0.00 88 1015.8
20260904131729 79 360 3.0 6.0 0.00 0.04 0.00 88 1015.7
20260904131630 79 360 4.0 6.0 0.00 0.04 0.00 88 1015.8
20260904131531 79 360 4.0 6.0 0.00 0.04 0.00 88 1015.8
20260904131417 79 360 4.0 6.0 0.00 0.04 0.00 88 1015.8
20260904131338 79 360 4.0 6.0 0.00 0.04 0.00 88 1015.8
20260904131217 79 360 4.0 6.0 0.00 0.04 0.00 88 1015.8
20260904131138 79 360 3.0 5.0 0.00 0.04 0.00 88 1015.8
20260904131018 79 360 3.0 5.0 0.00 0.04 0.00 88 1015.8
20260904130918 79 360 3.0 5.0 0.00 0.04 0.00 88 1015.8
20260904130820 79 360 3.0 5.0 0.00 0.04 0.00 88 1015.8
20260904130725 79 168 3.0 8.0 0.00 0.04 0.00 88 1015.8
20260904130626 79 360 3.0 9.0 0.00 0.04 0.00 88 1015.8
20260904130526 79 360 3.0 9.0 0.00 0.04 0.00 88 1015.8
20260904130426 79 360 3.0 10.0 0.00 0.04 0.00 88 1015.8
20260904130327 79 360 3.0 10.0 0.00 0.04 0.00 88 1015.8
20260904130247 79 360 3.0 10.0 0.00 0.04 0.00 88 1015.8
20260904130127 79 360 3.0 10.0 0.00 0.04 0.00 88 1015.8
20260904130032 79 360 4.0 10.0 0.00 0.04 0.00 89 1015.8
20260904125932 79 360 6.0 10.0 0.00 0.04 0.00 88 1015.8
20260904125834 79 360 6.0 10.0 0.00 0.04 0.00 88 1015.7
20260904125733 79 360 7.0 10.0 0.00 0.04 0.00 88 1015.8
20260904125634 79 360 6.0 10.0 0.00 0.04 0.00 88 1015.7
20260904125554 79 360 6.0 10.0 0.00 0.04 0.00 88 1015.6
20260904125418 79 360 5.0 10.0 0.00 0.04 0.00 88 1015.7
20260904125319 79 173 5.0 8.0 0.00 0.04 0.00 88 1015.6
20260904125220 79 360 5.0 8.0 0.00 0.04 0.00 88 1015.6
20260904125120 79 360 4.0 8.0 0.00 0.04 0.00 89 1015.6
20260904125021 79 360 4.0 8.0 0.00 0.04 0.00 89 1015.6
20260904124941 79 360 4.0 8.0 0.00 0.04 0.00 89 1015.7
20260904124820 79 360 4.0 8.0 0.00 0.04 0.00 89 1015.6
20260904124725 79 360 4.0 8.0 0.00 0.04 0.00 89 1015.6
20260904124626 79 360 4.0 8.0 0.00 0.04 0.00 89 1015.6
20260904124525 79 172 4.0 8.0 0.00 0.04 0.00 89 1015.6
20260904124426 79 360 5.0 8.0 0.00 0.04 0.00 89 1015.5
20260904124326 79 360 6.0 8.0 0.00 0.04 0.00 89 1015.5
20260904124247 79 360 5.0 9.0 0.00 0.04 0.00 89 1015.6
20260904124127 79 360 4.0 9.0 0.00 0.04 0.00 89 1015.5
20260904124028 79 360 4.0 9.0 0.00 0.04 0.00 89 1015.5
20260904123952 79 360 4.0 9.0 0.00 0.04 0.00 89 1015.5
20260904123852 79 360 4.0 10.0 0.00 0.04 0.00 89 1015.5
20260904123751 79 360 5.0 10.0 0.00 0.04 0.00 89 1015.5
20260904123651 79 360 5.0 10.0 0.00 0.04 0.00 89 1015.4
20260904123550 79 360 5.0 10.0 0.00 0.04 0.00 89 1015.4
20260904123429 79 360 5.0 10.0 0.00 0.04 0.00 89 1015.4
20260904123350 79 360 5.0 10.0 0.00 0.04 0.00 89 1015.4
20260904123229 79 360 6.0 10.0 0.00 0.04 0.00 89 1015.4
20260904123130 79 360 6.0 10.0 0.00 0.04 0.00 89 1015.4
20260904123050 79 360 6.0 10.0 0.00 0.04 0.00 89 1015.3
20260904122934 79 360 5.0 8.0 0.00 0.04 0.00 89 1015.4
20260904122835 79 360 4.0 8.0 0.00 0.04 0.00 89 1015.4
20260904122735 79 360 4.0 8.0 0.00 0.04 0.00 89 1015.3
20260904122616 79 360 4.0 8.0 0.00 0.04 0.00 89 1015.3
20260904122518 79 360 4.0 9.0 0.00 0.04 0.00 89 1015.3
20260904122438 79 360 4.0 9.0 0.00 0.04 0.00 89 1015.4
20260904122338 79 360 4.0 12.0 0.00 0.04 0.00 89 1015.3
20260904122221 79 360 4.0 12.0 0.00 0.04 0.00 89 1015.3
20260904122121 79 360 5.0 12.0 0.00 0.04 0.00 89 1015.3
20260904122042 79 360 5.0 12.0 0.00 0.04 0.00 89 1015.3
20260904121916 79 360 5.0 12.0 0.00 0.04 0.00 89 1015.2
20260904121836 79 360 5.0 12.0 0.00 0.04 0.00 89 1015.2
20260904121735 79 360 7.0 12.0 0.00 0.04 0.00 89 1015.2
20260904121634 79 360 7.0 12.0 0.00 0.04 0.00 89 1015.2
20260904121519 79 360 5.0 11.0 0.00 0.04 0.00 89 1015.2
20260904121420 79 360 4.0 9.0 0.00 0.04 0.00 89 1015.1
20260904121341 79 360 4.0 11.0 0.00 0.04 0.00 89 1015.1
20260904121220 79 360 6.0 11.0 0.00 0.04 0.00 89 1015.1
20260904121120 79 360 6.0 11.0 0.00 0.04 0.00 89 1015.0
20260904121040 79 360 6.0 11.0 0.00 0.04 0.00 89 1015.0
20260904120939 79 169 6.0 11.0 0.00 0.04 0.00 89 1015.0
20260904120818 79 360 5.0 11.0 0.00 0.04 0.00 89 1015.0
20260904120722 79 360 7.0 11.0 0.00 0.04 0.00 89 1015.0
20260904120622 79 360 7.0 11.0 0.00 0.04 0.00 89 1014.9
20260904120523 79 360 7.0 11.0 0.00 0.04 0.00 89 1014.9
20260904120423 79 360 6.0 10.0 0.00 0.04 0.00 89 1014.8
20260904120345 79 360 7.0 10.0 0.00 0.04 0.00 89 1014.8
20260904120224 79 178 7.0 10.0 0.00 0.04 0.00 89 1014.8
20260904120124 79 360 6.0 11.0 0.00 0.04 0.00 89 1014.8
20260904120024 79 360 5.0 11.0 0.00 0.04 0.00 89 1014.7
20260904115929 79 360 5.0 11.0 0.00 0.04 0.00 89 1014.8
20260904115830 79 360 6.0 12.0 0.00 0.04 0.00 89 1014.8
20260904115729 79 360 6.0 12.0 0.00 0.04 0.00 89 1014.7
20260904115628 79 360 6.0 12.0 0.00 0.04 0.00 89 1014.8
20260904115529 79 360 7.0 12.0 0.00 0.04 0.00 89 1014.7
20260904115430 79 360 7.0 12.0 0.00 0.04 0.00 89 1014.8
20260904115350 79 360 7.0 12.0 0.00 0.04 0.00 89 1014.8
20260904115234 79 360 7.0 12.0 0.00 0.04 0.00 89 1014.7
20260904115134 79 360 8.0 12.0 0.00 0.04 0.00 89 1014.8
20260904115035 79 360 7.0 12.0 0.00 0.04 0.00 89 1014.7
20260904114936 79 360 7.0 11.0 0.00 0.04 0.00 89 1014.8
20260904114857 79 360 7.0 14.0 0.00 0.04 0.00 89 1014.8
20260904114756 79 360 8.0 14.0 0.00 0.04 0.00 89 1014.7
20260904114655 79 360 8.0 14.0 0.00 0.04 0.00 89 1014.8
20260904114535 79 360 7.0 14.0 0.00 0.04 0.00 89 1014.8
20260904114419 79 360 6.0 14.0 0.00 0.04 0.00 89 1014.7
20260904114320 79 360 7.0 14.0 0.00 0.04 0.00 89 1014.8
20260904114221 79 360 9.0 14.0 0.00 0.04 0.00 89 1014.8
20260904114121 79 360 9.0 14.0 0.00 0.04 0.00 89 1014.8
20260904114022 79 360 9.0 14.0 0.00 0.04 0.00 89 1014.8
20260904113942 79 360 8.0 14.0 0.00 0.04 0.00 89 1014.7
20260904113842 79 360 7.0 14.0 0.00 0.04 0.00 89 1014.7
20260904113725 79 360 6.0 14.0 0.00 0.04 0.00 89 1014.6
20260904113627 79 360 6.0 14.0 0.00 0.04 0.00 89 1014.7
20260904113526 79 360 6.0 14.0 0.00 0.04 0.00 89 1014.7
20260904113447 79 155 7.0 14.0 0.00 0.04 0.00 89 1014.6
20260904113326 79 360 7.0 14.0 0.00 0.04 0.00 89 1014.6
20260904113227 79 360 7.0 12.0 0.00 0.04 0.00 89 1014.6
20260904113129 79 161 7.0 12.0 0.00 0.04 0.00 89 1014.6
20260904113049 79 360 7.0 12.0 0.00 0.04 0.00 89 1014.6
20260904112953 79 360 8.0 13.0 0.00 0.04 0.00 89 1014.5
20260904112854 79 360 8.0 13.0 0.00 0.04 0.00 89 1014.5
20260904112732 79 360 8.0 13.0 0.00 0.04 0.00 89 1014.6
20260904112652 79 360 8.0 13.0 0.00 0.04 0.00 89 1014.6
20260904112532 79 360 6.0 13.0 0.00 0.04 0.00 89 1014.6
20260904112432 79 360 5.0 13.0 0.00 0.04 0.00 89 1014.5
20260904112333 79 360 7.0 13.0 0.00 0.04 0.00 89 1014.6
20260904112217 79 360 8.0 13.0 0.00 0.04 0.00 89 1014.6
20260904112119 79 360 7.0 13.0 0.00 0.04 0.00 89 1014.5
20260904112020 79 360 5.0 10.0 0.00 0.04 0.00 89 1014.6
20260904111921 79 161 5.0 10.0 0.00 0.04 0.00 89 1014.6
20260904111842 79 360 5.0 11.0 0.00 0.04 0.00 89 1014.5
20260904111722 79 360 5.0 12.0 0.00 0.04 0.00 89 1014.5
20260904111623 79 360 5.0 12.0 0.00 0.04 0.00 89 1014.5
20260904111528 79 360 5.0 12.0 0.00 0.04 0.00 89 1014.5
20260904111429 79 360 5.0 12.0 0.00 0.04 0.00 89 1014.4
20260904111329 79 360 5.0 12.0 0.00 0.04 0.00 89 1014.5
20260904111230 79 360 6.0 12.0 0.00 0.04 0.00 89 1014.5
20260904111130 79 360 7.0 12.0 0.00 0.04 0.00 89 1014.6
20260904111031 79 360 8.0 12.0 0.00 0.04 0.00 89 1014.5
20260904110952 79 360 8.0 12.0 0.00 0.04 0.00 89 1014.5
20260904110834 78 360 7.0 11.0 0.00 0.04 0.00 89 1014.4
20260904110735 78 360 7.0 11.0 0.00 0.04 0.00 89 1014.5
20260904110655 78 360 6.0 11.0 0.00 0.04 0.00 89 1014.5
20260904110535 78 360 6.0 11.0 0.00 0.04 0.00 89 1014.5
20260904110456 78 360 6.0 11.0 0.00 0.04 0.00 89 1014.6
20260904110356 78 360 6.0 11.0 0.00 0.04 0.00 89 1014.5
20260904110235 78 360 6.0 11.0 0.00 0.04 0.00 89 1014.5
20260904110155 78 360 5.0 11.0 0.00 0.04 0.00 89 1014.5
20260904110019 78 360 6.0 11.0 0.00 0.04 0.00 89 1014.5
20260904105919 78 360 6.0 11.0 0.00 0.04 0.00 89 1014.4
20260904105821 78 360 6.0 10.0 0.00 0.04 0.00 89 1014.5
20260904105720 78 360 6.0 10.0 0.00 0.04 0.00 89 1014.4
20260904105640 78 360 6.0 10.0 0.00 0.04 0.00 89 1014.4
20260904105520 78 360 6.0 10.0 0.00 0.04 0.00 89 1014.4
20260904105420 78 360 5.0 8.0 0.00 0.04 0.00 89 1014.4
20260904105342 78 360 5.0 8.0 0.00 0.04 0.00 89 1014.4
20260904105226 78 360 5.0 8.0 0.00 0.04 0.00 89 1014.4
20260904105127 78 360 5.0 8.0 0.00 0.04 0.00 89 1014.4
20260904105026 78 360 5.0 9.0 0.00 0.04 0.00 89 1014.4
20260904104925 78 360 5.0 9.0 0.00 0.04 0.00 89 1014.4
20260904104826 78 360 4.0 9.0 0.00 0.04 0.00 89 1014.3
20260904104727 78 360 4.0 9.0 0.00 0.04 0.00 89 1014.3
20260904104627 78 360 4.0 9.0 0.00 0.04 0.00 89 1014.2
20260904104528 78 360 4.0 9.0 0.00 0.04 0.00 89 1014.3
20260904104431 78 360 5.0 9.0 0.00 0.04 0.00 89 1014.3
20260904104333 78 360 5.0 9.0 0.00 0.04 0.00 89 1014.2
20260904104233 78 360 5.0 9.0 0.00 0.04 0.00 89 1014.2
20260904104154 78 360 4.0 9.0 0.00 0.04 0.00 89 1014.1
20260904104032 78 360 4.0 9.0 0.00 0.04 0.00 89 1014.2
20260904103933 78 360 4.0 9.0 0.00 0.04 0.00 89 1014.2
20260904103832 78 360 5.0 9.0 0.00 0.04 0.00 89 1014.2
20260904103716 78 360 5.0 9.0 0.00 0.04 0.00 89 1014.2
20260904103617 78 360 5.0 9.0 0.00 0.04 0.00 89 1014.2
20260904103518 78 360 5.0 11.0 0.00 0.04 0.00 89 1014.1
20260904103419 78 360 5.0 11.0 0.00 0.04 0.00 89 1014.2
20260904103319 78 360 5.0 11.0 0.00 0.04 0.00 89 1014.2
20260904103220 78 360 5.0 11.0 0.00 0.04 0.00 89 1014.1
20260904103120 78 360 5.0 11.0 0.00 0.04 0.00 89 1014.1
20260904103025 78 360 5.0 11.0 0.00 0.04 0.00 89 1014.1
20260904102926 78 360 5.0 11.0 0.00 0.04 0.00 89 1014.1
20260904102828 78 360 6.0 11.0 0.00 0.04 0.00 89 1014.1
20260904102727 78 360 5.0 11.0 0.00 0.04 0.00 89 1014.1
20260904102627 78 360 6.0 11.0 0.00 0.04 0.00 89 1014.1
20260904102527 78 360 5.0 9.0 0.00 0.04 0.00 89 1014.1
20260904102432 78 360 5.0 8.0 0.00 0.04 0.00 89 1014.1
20260904102334 78 360 5.0 8.0 0.00 0.04 0.00 89 1014.0
20260904102254 78 360 4.0 8.0 0.00 0.04 0.00 89 1014.1
20260904102134 78 360 4.0 8.0 0.00 0.04 0.00 89 1014.1
20260904102054 78 360 4.0 7.0 0.00 0.04 0.00 89 1014.1
20260904101934 78 360 4.0 7.0 0.00 0.04 0.00 89 1014.1
20260904101834 78 360 4.0 6.0 0.00 0.04 0.00 89 1014.1
20260904101720 78 360 4.0 6.0 0.00 0.04 0.00 89 1014.1
20260904101640 78 360 4.0 6.0 0.00 0.04 0.00 89 1014.1
20260904101520 78 360 4.0 6.0 0.00 0.04 0.00 89 1014.1
20260904101421 78 360 4.0 6.0 0.00 0.04 0.00 89 1014.1
20260904101342 78 360 5.0 6.0 0.00 0.04 0.00 89 1014.1
20260904101222 78 360 4.0 6.0 0.00 0.04 0.00 89 1014.1
20260904101121 78 360 4.0 6.0 0.00 0.04 0.00 90 1014.1
20260904101022 78 360 4.0 6.0 0.00 0.04 0.00 89 1014.1
20260904100946 78 360 4.0 6.0 0.00 0.04 0.00 89 1014.1
20260904100826 78 360 4.0 6.0 0.00 0.04 0.00 89 1014.1
20260904100727 78 360 4.0 6.0 0.00 0.04 0.00 89 1014.1
20260904100628 78 360 4.0 9.0 0.00 0.04 0.00 89 1014.1
20260904100529 78 360 4.0 10.0 0.00 0.04 0.00 89 1014.1
20260904100428 78 360 4.0 10.0 0.00 0.04 0.00 89 1014.2
20260904100328 78 360 4.0 10.0 0.00 0.04 0.00 89 1014.2
20260904100232 78 360 4.0 10.0 0.00 0.04 0.00 89 1014.2
20260904100153 78 360 4.0 10.0 0.00 0.04 0.00 89 1014.2
20260904100033 78 360 5.0 10.0 0.00 0.04 0.00 89 1014.1
20260904095953 78 360 6.0 10.0 0.00 0.04 0.00 89 1014.2
20260904095834 78 360 7.0 10.0 0.00 0.04 0.00 89 1014.1
20260904095733 78 360 6.0 10.0 0.00 0.04 0.00 89 1014.1
20260904095634 78 360 5.0 10.0 0.00 0.04 0.00 89 1014.1
20260904095519 78 360 5.0 10.0 0.00 0.04 0.00 89 1014.1
20260904095420 78 360 4.0 8.0 0.00 0.04 0.00 89 1014.1
20260904095320 78 360 5.0 8.0 0.00 0.04 0.00 89 1014.0
20260904095221 78 360 5.0 8.0 0.00 0.04 0.00 89 1014.0
20260904095142 78 360 4.0 9.0 0.00 0.04 0.00 89 1014.1
20260904095021 78 360 4.0 9.0 0.00 0.04 0.00 89 1014.0
20260904094921 78 360 3.0 9.0 0.00 0.04 0.00 89 1014.1
20260904094821 78 360 3.0 9.0 0.00 0.04 0.00 89 1014.0
20260904094726 78 360 4.0 9.0 0.00 0.04 0.00 89 1014.1
20260904094624 78 360 4.0 9.0 0.00 0.04 0.00 89 1014.1
20260904094524 78 360 6.0 9.0 0.00 0.04 0.00 88 1014.0
20260904094425 78 360 6.0 9.0 0.00 0.04 0.00 88 1014.0
20260904094346 78 360 5.0 10.0 0.00 0.04 0.00 88 1014.1
20260904094225 78 360 4.0 10.0 0.00 0.04 0.00 88 1013.9
20260904094126 78 360 4.0 10.0 0.00 0.04 0.00 88 1014.0
20260904094030 78 360 4.0 10.0 0.00 0.04 0.00 88 1014.0
20260904093931 78 360 5.0 10.0 0.00 0.04 0.00 88 1014.0
20260904093831 78 360 5.0 11.0 0.00 0.04 0.00 88 1014.0
20260904093732 78 360 5.0 11.0 0.00 0.04 0.00 88 1014.0
20260904093633 78 360 5.0 11.0 0.00 0.04 0.00 88 1014.0
20260904093533 79 360 5.0 11.0 0.00 0.04 0.00 88 1014.1
20260904093454 79 360 5.0 11.0 0.00 0.04 0.00 88 1014.0
20260904093338 79 360 6.0 11.0 0.00 0.04 0.00 88 1014.0
20260904093218 79 360 7.0 11.0 0.00 0.04 0.00 88 1014.0
20260904093118 79 360 7.0 11.0 0.00 0.04 0.00 88 1013.9
20260904093019 79 360 6.0 11.0 0.00 0.04 0.00 87 1014.1
20260904092919 79 360 5.0 10.0 0.00 0.04 0.00 87 1014.0
20260904092840 79 360 5.0 10.0 0.00 0.04 0.00 87 1014.0
20260904092719 79 360 5.0 10.0 0.00 0.04 0.00 87 1013.9
20260904092640 79 360 5.0 10.0 0.00 0.04 0.00 87 1013.9
20260904092524 79 360 5.0 10.0 0.00 0.04 0.00 87 1013.9
20260904092445 79 360 5.0 10.0 0.00 0.04 0.00 87 1014.0
20260904092343 79 360 5.0 9.0 0.00 0.04 0.00 87 1014.0
20260904092224 79 360 4.0 6.0 0.00 0.04 0.00 87 1014.0
20260904092124 79 360 3.0 6.0 0.00 0.04 0.00 87 1013.9
20260904092025 79 360 3.0 6.0 0.00 0.04 0.00 87 1014.0
20260904091925 79 360 4.0 6.0 0.00 0.04 0.00 87 1014.0
20260904091830 79 360 4.0 6.0 0.00 0.04 0.00 86 1014.0
20260904091729 79 360 3.0 6.0 0.00 0.04 0.00 86 1014.0
20260904091630 79 360 3.0 12.0 0.00 0.04 0.00 86 1014.0
20260904091531 79 360 3.0 12.0 0.00 0.04 0.00 86 1013.9
20260904091432 79 180 3.0 12.0 0.00 0.04 0.00 86 1014.0
20260904091332 79 360 3.0 12.0 0.00 0.04 0.00 86 1013.9
20260904091232 79 360 3.0 12.0 0.00 0.04 0.00 86 1013.9
20260904091132 79 360 2.0 12.0 0.00 0.04 0.00 86 1013.9
20260904091056 79 360 2.0 12.0 0.00 0.04 0.00 86 1013.9
20260904090935 79 190 4.0 12.0 0.00 0.04 0.00 86 1014.0
20260904090856 79 360 5.0 12.0 0.00 0.04 0.00 86 1013.9
20260904090734 79 360 6.0 11.0 0.00 0.04 0.00 86 1013.8
20260904090635 79 360 5.0 11.0 0.00 0.04 0.00 86 1013.9
20260904090516 79 360 5.0 11.0 0.00 0.04 0.00 86 1013.8
20260904090417 79 360 5.0 11.0 0.00 0.04 0.00 87 1013.7
20260904090321 79 360 5.0 11.0 0.00 0.04 0.00 86 1013.8
20260904090222 79 360 4.0 8.0 0.00 0.04 0.00 86 1013.8
20260904090121 79 360 3.0 8.0 0.00 0.04 0.00 86 1013.8
20260904090023 79 360 3.0 8.0 0.00 0.04 0.00 86 1013.9
20260904085924 79 360 2.0 8.0 0.00 0.04 0.00 86 1013.9
20260904085826 79 360 3.0 8.0 0.00 0.04 0.00 86 1013.9
20260904085731 79 360 2.0 6.0 0.00 0.04 0.00 86 1013.9
20260904085631 79 360 3.0 6.0 0.00 0.04 0.00 86 1013.9
20260904085533 79 360 3.0 6.0 0.00 0.04 0.00 86 1014.0
20260904085433 79 188 3.0 10.0 0.00 0.04 0.00 86 1014.0
20260904085334 79 360 3.0 10.0 0.00 0.04 0.00 86 1014.0
20260904085255 79 360 3.0 10.0 0.00 0.04 0.00 86 1014.0
20260904085153 79 360 3.0 10.0 0.00 0.04 0.00 86 1014.0
20260904085017 79 360 2.0 10.0 0.00 0.04 0.00 86 1014.0
20260904084919 79 360 1.0 10.0 0.00 0.04 0.00 86 1014.1
20260904084820 79 360 3.0 10.0 0.00 0.04 0.00 86 1014.0
20260904084740 79 360 3.0 10.0 0.00 0.04 0.00 86 1014.1
20260904084620 79 360 5.0 10.0 0.00 0.04 0.00 86 1014.0
20260904084521 79 360 4.0 10.0 0.00 0.04 0.00 86 1014.0
20260904084421 79 360 4.0 10.0 0.00 0.04 0.00 86 1014.1
20260904084327 79 360 3.0 8.0 0.00 0.04 0.00 86 1014.0
20260904084228 79 360 3.0 8.0 0.00 0.04 0.00 86 1014.0
20260904084128 79 360 4.0 8.0 0.00 0.04 0.00 86 1014.0
20260904084028 79 360 4.0 9.0 0.00 0.04 0.00 86 1014.0
20260904083929 79 360 4.0 9.0 0.00 0.04 0.00 86 1014.0
20260904083830 79 360 4.0 9.0 0.00 0.04 0.00 86 1014.0
20260904083731 79 360 5.0 9.0 0.00 0.04 0.00 86 1014.0
20260904083616 79 360 5.0 9.0 0.00 0.04 0.00 86 1014.1
20260904083517 79 360 5.0 14.0 0.00 0.04 0.00 86 1014.1
20260904083419 79 360 5.0 14.0 0.00 0.04 0.00 86 1014.0
20260904083339 79 169 5.0 14.0 0.00 0.04 0.00 86 1014.0
20260904083239 79 360 6.0 14.0 0.00 0.04 0.00 86 1014.0
20260904083117 79 360 6.0 14.0 0.00 0.04 0.00 86 1014.1
20260904083018 79 360 5.0 14.0 0.00 0.04 0.00 86 1014.1
20260904082922 79 360 5.0 14.0 0.00 0.04 0.00 86 1014.1
20260904082825 79 360 6.0 14.0 0.00 0.04 0.00 86 1014.0
20260904082724 79 360 7.0 14.0 0.00 0.04 0.00 86 1014.1
20260904082624 79 360 6.0 14.0 0.00 0.04 0.00 86 1014.0
20260904082524 79 360 7.0 13.0 0.00 0.04 0.00 86 1014.0
20260904082424 79 360 6.0 12.0 0.00 0.04 0.00 86 1014.0
20260904082325 79 360 6.0 12.0 0.00 0.04 0.00 85 1014.0
20260904082228 79 360 5.0 12.0 0.00 0.04 0.00 85 1014.0
20260904082129 79 178 3.0 12.0 0.00 0.04 0.00 85 1013.9
20260904082030 79 360 4.0 12.0 0.00 0.04 0.00 85 1014.0
20260904081950 80 360 5.0 12.0 0.00 0.04 0.00 85 1014.0
20260904081830 80 360 7.0 16.0 0.00 0.04 0.00 85 1014.0
20260904081731 80 180 5.0 16.0 0.00 0.04 0.00 85 1013.9
20260904081632 80 360 5.0 16.0 0.00 0.04 0.00 85 1013.9
20260904081516 80 360 5.0 16.0 0.00 0.04 0.00 85 1013.9
20260904081437 80 360 5.0 16.0 0.00 0.04 0.00 85 1013.9
20260904081316 80 360 7.0 16.0 0.00 0.04 0.00 85 1013.9
20260904081217 80 360 7.0 16.0 0.00 0.04 0.00 85 1013.9
20260904081118 80 360 8.0 16.0 0.00 0.04 0.00 85 1013.9
20260904081020 80 360 7.0 16.0 0.00 0.04 0.00 85 1013.9
20260904080920 80 360 5.0 15.0 0.00 0.04 0.00 85 1014.0
20260904080825 80 360 5.0 15.0 0.00 0.04 0.00 85 1014.0
20260904080726 80 360 4.0 15.0 0.00 0.04 0.00 85 1013.9
20260904080626 80 360 5.0 15.0 0.00 0.04 0.00 85 1013.9
20260904080527 80 360 5.0 15.0 0.00 0.04 0.00 85 1013.9
20260904080427 80 360 4.0 12.0 0.00 0.04 0.00 85 1013.9
20260904080328 80 360 4.0 15.0 0.00 0.04 0.00 85 1014.0
20260904080230 80 186 4.0 15.0 0.00 0.04 0.00 85 1013.9
20260904080130 80 360 4.0 15.0 0.00 0.04 0.00 85 1014.0
20260904080051 80 360 5.0 15.0 0.00 0.04 0.00 85 1013.9
20260904075930 80 360 5.0 15.0 0.00 0.04 0.00 85 1013.9
20260904075832 80 360 6.0 15.0 0.00 0.04 0.00 85 1013.9
20260904075751 80 360 6.0 16.0 0.00 0.04 0.00 84 1013.9
20260904075630 80 360 8.0 16.0 0.00 0.04 0.00 84 1013.9
20260904075530 80 360 8.0 16.0 0.00 0.04 0.00 84 1013.9
20260904075434 80 360 7.0 16.0 0.00 0.04 0.00 85 1013.9
20260904075354 80 360 6.0 16.0 0.00 0.04 0.00 84 1013.9
20260904075255 80 360 7.0 16.0 0.00 0.04 0.00 84 1014.0
20260904075134 80 360 9.0 16.0 0.00 0.04 0.00 84 1013.9
20260904075035 80 360 9.0 16.0 0.00 0.04 0.00 84 1013.9
20260904074954 80 360 9.0 16.0 0.00 0.04 0.00 84 1013.9
20260904074834 80 360 7.0 16.0 0.00 0.04 0.00 84 1014.0
20260904074731 80 360 7.0 16.0 0.00 0.04 0.00 84 1013.9
20260904074631 80 360 7.0 16.0 0.00 0.04 0.00 84 1014.0
20260904074551 80 360 8.0 16.0 0.00 0.04 0.00 84 1013.9
20260904074435 80 360 9.0 16.0 0.00 0.04 0.00 84 1014.0
20260904074315 80 360 7.0 16.0 0.00 0.04 0.00 84 1014.0
20260904074216 80 360 6.0 16.0 0.00 0.04 0.00 84 1014.0
20260904074116 80 360 5.0 16.0 0.00 0.04 0.00 84 1014.1
20260904074037 80 360 6.0 16.0 0.00 0.04 0.00 84 1014.0
20260904073916 80 360 6.0 16.0 0.00 0.04 0.00 84 1014.1
20260904073817 80 360 7.0 15.0 0.00 0.04 0.00 84 1014.1
20260904073722 80 360 8.0 15.0 0.00 0.04 0.00 84 1014.1
20260904073622 80 360 9.0 15.0 0.00 0.04 0.00 84 1014.1
20260904073523 80 360 7.0 15.0 0.00 0.04 0.00 84 1014.2
20260904073425 80 360 5.0 17.0 0.00 0.04 0.00 84 1014.2
20260904073346 80 360 4.0 18.0 0.00 0.04 0.00 84 1014.2
20260904073225 80 360 5.0 18.0 0.00 0.04 0.00 84 1014.1
20260904073148 80 360 6.0 18.0 0.00 0.04 0.00 84 1014.1
20260904073032 80 360 6.0 18.0 0.00 0.04 0.00 84 1014.1
20260904072933 80 360 6.0 18.0 0.00 0.04 0.00 84 1014.1
20260904072816 80 360 7.0 18.0 0.00 0.04 0.00 84 1014.2
20260904072716 80 360 10.0 18.0 0.00 0.04 0.00 84 1014.2
20260904072617 80 360 9.0 18.0 0.00 0.04 0.00 84 1014.2
20260904072537 80 360 9.0 18.0 0.00 0.04 0.00 84 1014.1
20260904072419 80 360 9.0 18.0 0.00 0.04 0.00 84 1014.2
20260904072323 80 360 9.0 18.0 0.00 0.04 0.00 84 1014.2
20260904072244 80 175 10.0 18.0 0.00 0.04 0.00 84 1014.1
20260904072123 80 360 9.0 18.0 0.00 0.04 0.00 84 1014.1
20260904072024 80 360 7.0 13.0 0.00 0.04 0.00 84 1014.1
20260904071924 80 360 7.0 13.0 0.00 0.04 0.00 84 1014.1
20260904071826 80 360 7.0 13.0 0.00 0.04 0.00 84 1014.2
20260904071727 80 360 8.0 13.0 0.00 0.04 0.00 84 1014.2
20260904071631 80 360 7.0 13.0 0.00 0.04 0.00 84 1014.2
20260904071532 80 360 6.0 12.0 0.00 0.04 0.00 84 1014.2
20260904071434 80 360 4.0 12.0 0.00 0.04 0.00 83 1014.2
20260904071354 80 360 4.0 12.0 0.00 0.04 0.00 83 1014.3
20260904071233 80 360 5.0 12.0 0.00 0.04 0.00 83 1014.2
20260904071134 80 360 7.0 12.0 0.00 0.04 0.00 83 1014.3
20260904071056 80 360 7.0 12.0 0.00 0.04 0.00 83 1014.2
20260904070919 80 360 7.0 12.0 0.00 0.04 0.00 83 1014.3
20260904070839 80 360 5.0 12.0 0.00 0.04 0.00 83 1014.3
20260904070719 80 360 6.0 12.0 0.00 0.04 0.00 83 1014.2
20260904070621 80 360 5.0 12.0 0.00 0.04 0.00 83 1014.3
20260904070522 80 360 5.0 13.0 0.00 0.04 0.00 83 1014.3
20260904070443 80 360 5.0 13.0 0.00 0.04 0.00 83 1014.3
20260904070322 80 360 6.0 13.0 0.00 0.04 0.00 83 1014.3
20260904070223 80 360 7.0 13.0 0.00 0.04 0.00 83 1014.3
20260904070128 80 360 7.0 13.0 0.00 0.04 0.00 83 1014.3
20260904070029 80 360 7.0 14.0 0.00 0.04 0.00 83 1014.4
20260904065931 80 360 7.0 14.0 0.00 0.04 0.00 83 1014.4
20260904065833 80 360 7.0 14.0 0.00 0.04 0.00 83 1014.3
20260904065733 80 360 7.0 14.0 0.00 0.04 0.00 83 1014.3
20260904065634 80 360 7.0 14.0 0.00 0.04 0.00 83 1014.4
20260904065519 80 360 8.0 14.0 0.00 0.04 0.00 83 1014.4
20260904065418 80 360 7.0 13.0 0.00 0.04 0.00 83 1014.4
20260904065320 80 360 7.0 13.0 0.00 0.04 0.00 83 1014.4
20260904065221 80 360 6.0 13.0 0.00 0.04 0.00 83 1014.4
20260904065121 80 360 6.0 13.0 0.00 0.04 0.00 83 1014.4
20260904065021 80 360 6.0 14.0 0.00 0.04 0.00 83 1014.4
20260904064920 80 360 6.0 14.0 0.00 0.04 0.00 83 1014.4
20260904064825 80 360 5.0 15.0 0.00 0.04 0.00 83 1014.4
20260904064725 80 360 5.0 15.0 0.00 0.04 0.00 83 1014.4
20260904064645 80 360 5.0 15.0 0.00 0.04 0.00 83 1014.4
20260904064525 80 360 5.0 15.0 0.00 0.04 0.00 83 1014.4
20260904064446 80 360 7.0 15.0 0.00 0.04 0.00 83 1014.3
20260904064325 80 360 8.0 15.0 0.00 0.04 0.00 83 1014.3
20260904064247 80 360 8.0 19.0 0.00 0.04 0.00 83 1014.4
20260904064126 80 360 7.0 19.0 0.00 0.04 0.00 83 1014.4
20260904064026 80 360 5.0 19.0 0.00 0.04 0.00 83 1014.3
20260904063931 80 360 5.0 19.0 0.00 0.04 0.00 83 1014.3
20260904063832 80 360 5.0 19.0 0.00 0.04 0.00 83 1014.3
20260904063753 80 360 7.0 19.0 0.00 0.04 0.00 83 1014.3
20260904063653 80 360 7.0 19.0 0.00 0.04 0.00 83 1014.4
20260904063552 80 360 7.0 19.0 0.00 0.04 0.00 83 1014.3
20260904063431 80 360 7.0 13.0 0.00 0.04 0.00 83 1014.4
20260904063332 80 360 6.0 13.0 0.00 0.04 0.00 83 1014.4
20260904063252 80 360 6.0 13.0 0.00 0.04 0.00 83 1014.3
20260904063116 80 360 5.0 13.0 0.00 0.04 0.00 83 1014.4
20260904063016 80 360 6.0 13.0 0.00 0.04 0.00 83 1014.4
20260904062918 80 360 6.0 13.0 0.00 0.04 0.00 83 1014.4
20260904062820 80 360 7.0 13.0 0.00 0.04 0.00 83 1014.4
20260904062719 80 360 8.0 13.0 0.00 0.04 0.00 83 1014.3
20260904062619 80 360 9.0 13.0 0.00 0.04 0.00 83 1014.3
20260904062524 80 360 8.0 13.0 0.00 0.04 0.00 83 1014.3
20260904062444 80 360 7.0 13.0 0.00 0.04 0.00 83 1014.3
20260904062323 80 360 6.0 12.0 0.00 0.04 0.00 82 1014.3
20260904062223 80 360 6.0 12.0 0.00 0.04 0.00 82 1014.3
20260904062124 80 360 7.0 12.0 0.00 0.04 0.00 82 1014.3
20260904062024 80 360 7.0 12.0 0.00 0.04 0.00 82 1014.4
20260904061925 80 360 6.0 15.0 0.00 0.04 0.00 82 1014.3
20260904061830 80 360 6.0 15.0 0.00 0.04 0.00 82 1014.3
20260904061730 80 360 6.0 15.0 0.00 0.04 0.00 82 1014.3
20260904061630 80 360 6.0 15.0 0.00 0.04 0.00 82 1014.4
20260904061530 80 360 7.0 15.0 0.00 0.04 0.00 82 1014.3
20260904061431 80 360 7.0 15.0 0.00 0.04 0.00 82 1014.4
20260904061331 80 360 8.0 17.0 0.00 0.04 0.00 82 1014.3
20260904061251 80 360 8.0 17.0 0.00 0.04 0.00 82 1014.4
20260904061151 80 360 9.0 17.0 0.00 0.04 0.00 82 1014.4
20260904061034 80 360 8.0 17.0 0.00 0.04 0.00 82 1014.3
20260904060935 80 360 7.0 17.0 0.00 0.04 0.00 82 1014.4
20260904060854 80 360 8.0 17.0 0.00 0.04 0.00 82 1014.3
20260904060734 80 360 9.0 17.0 0.00 0.04 0.00 82 1014.4
20260904060655 80 360 10.0 17.0 0.00 0.04 0.00 82 1014.4
20260904060535 80 360 9.0 17.0 0.00 0.04 0.00 82 1014.4
20260904060435 80 360 9.0 19.0 0.00 0.04 0.00 82 1014.4
20260904060319 80 360 9.0 19.0 0.00 0.04 0.00 82 1014.4
20260904060219 80 360 8.0 19.0 0.00 0.04 0.00 82 1014.4
20260904060140 80 360 7.0 19.0 0.00 0.04 0.00 82 1014.3
20260904060020 80 360 6.0 19.0 0.00 0.04 0.00 82 1014.3
20260904055918 80 360 7.0 19.0 0.00 0.04 0.00 82 1014.4
20260904055820 80 360 9.0 19.0 0.00 0.04 0.00 81 1014.4
20260904055720 80 360 9.0 19.0 0.00 0.04 0.04 81 1014.4
20260904055626 80 360 10.0 19.0 0.00 0.04 0.04 81 1014.3
20260904055527 80 360 10.0 17.0 0.00 0.04 0.04 81 1014.3
20260904055427 80 360 10.0 17.0 0.00 0.04 0.04 81 1014.4
20260904055327 80 360 10.0 17.0 0.00 0.04 0.04 81 1014.4
20260904055228 80 360 10.0 17.0 0.00 0.04 0.04 81 1014.4
20260904055129 80 360 11.0 17.0 0.00 0.04 0.04 81 1014.4
20260904055030 80 360 11.0 17.0 0.00 0.04 0.04 81 1014.3
20260904054934 80 360 9.0 17.0 0.00 0.04 0.04 81 1014.4
20260904054835 80 360 9.0 18.0 0.00 0.04 0.04 81 1014.4
20260904054735 80 360 8.0 18.0 0.00 0.04 0.04 81 1014.4
20260904054635 80 360 10.0 18.0 0.00 0.04 0.04 81 1014.3
20260904054517 80 360 11.0 18.0 0.00 0.04 0.04 81 1014.4
20260904054437 80 360 10.0 20.0 0.00 0.04 0.04 81 1014.3
20260904054337 80 360 9.0 20.0 0.00 0.04 0.04 81 1014.3
20260904054220 80 360 9.0 21.0 0.00 0.04 0.04 81 1014.3
20260904054141 80 360 9.0 21.0 0.00 0.04 0.04 81 1014.3
20260904054021 80 360 10.0 21.0 0.00 0.04 0.04 81 1014.3
20260904053921 80 360 9.0 21.0 0.00 0.04 0.04 81 1014.3
20260904053822 80 360 9.0 21.0 0.00 0.04 0.04 81 1014.2
20260904053723 80 360 9.0 21.0 0.00 0.04 0.04 81 1014.2
20260904053624 80 360 10.0 21.0 0.00 0.04 0.04 81 1014.2
20260904053545 80 360 12.0 21.0 0.00 0.04 0.04 81 1014.2
20260904053448 80 360 13.0 21.0 0.00 0.04 0.04 81 1014.3
20260904053328 80 360 12.0 19.0 0.00 0.04 0.04 81 1014.2
20260904053248 80 360 11.0 18.0 0.00 0.04 0.04 81 1014.3
20260904053128 80 360 9.0 17.0 0.00 0.04 0.04 81 1014.1
20260904053028 80 360 9.0 19.0 0.00 0.04 0.04 81 1014.2
20260904052929 80 360 10.0 19.0 0.00 0.04 0.04 81 1014.3
20260904052830 80 360 10.0 19.0 0.00 0.04 0.04 81 1014.2
20260904052749 80 360 10.0 19.0 0.00 0.04 0.04 81 1014.2
20260904052633 80 360 9.0 19.0 0.00 0.04 0.04 81 1014.2
20260904052533 80 360 9.0 19.0 0.00 0.04 0.04 80 1014.2
20260904052434 80 360 9.0 19.0 0.00 0.04 0.04 80 1014.2
20260904052333 80 360 10.0 19.0 0.00 0.04 0.04 80 1014.2
20260904052254 80 360 10.0 19.0 0.00 0.04 0.04 80 1014.1
20260904052133 80 360 9.0 17.0 0.00 0.04 0.04 80 1014.2
20260904052054 80 360 9.0 17.0 0.00 0.04 0.04 80 1014.1
20260904051933 80 360 9.0 17.0 0.00 0.04 0.04 80 1014.1
20260904051817 80 360 10.0 18.0 0.00 0.04 0.04 80 1014.1
20260904051718 80 360 11.0 18.0 0.00 0.04 0.04 80 1014.1
20260904051639 80 360 11.0 18.0 0.00 0.04 0.04 80 1014.1
20260904051519 80 360 11.0 18.0 0.00 0.04 0.04 80 1014.1
20260904051417 80 360 11.0 18.0 0.00 0.04 0.04 80 1014.1
20260904051318 80 360 11.0 18.0 0.00 0.04 0.04 80 1014.1
20260904051218 80 180 11.0 18.0 0.00 0.04 0.04 80 1014.1
20260904051123 80 360 10.0 18.0 0.00 0.04 0.04 80 1014.1
20260904051044 80 360 10.0 18.0 0.00 0.04 0.04 80 1014.1
20260904050925 80 360 10.0 15.0 0.00 0.04 0.04 80 1014.1
20260904050825 80 360 10.0 15.0 0.00 0.04 0.04 80 1014.1
20260904050727 80 360 11.0 15.0 0.00 0.04 0.04 80 1014.1
20260904050628 80 360 10.0 15.0 0.00 0.04 0.04 80 1014.0
20260904050529 80 360 11.0 15.0 0.00 0.04 0.04 80 1014.1
20260904050432 80 360 11.0 15.0 0.00 0.04 0.04 80 1014.1
20260904050333 80 360 10.0 15.0 0.00 0.04 0.04 80 1014.1
20260904050234 80 360 11.0 15.0 0.00 0.04 0.04 80 1014.1
20260904050134 80 360 10.0 15.0 0.00 0.04 0.04 80 1014.1
20260904050036 80 360 10.0 15.0 0.00 0.04 0.04 80 1014.1
20260904045929 80 360 10.0 15.0 0.00 0.04 0.04 80 1014.2
20260904045832 80 360 10.0 15.0 0.00 0.04 0.04 80 1014.1
20260904045734 80 161 10.0 15.0 0.00 0.04 0.04 80 1014.2
20260904045635 80 360 10.0 15.0 0.00 0.04 0.04 80 1014.2
20260904045535 80 161 10.0 14.0 0.00 0.04 0.04 80 1014.2
20260904045435 80 180 10.0 14.0 0.00 0.04 0.04 80 1014.2
20260904045356 80 360 11.0 15.0 0.00 0.04 0.04 80 1014.2
20260904045235 80 360 11.0 21.0 0.00 0.04 0.04 80 1014.2
20260904045120 80 360 10.0 21.0 0.00 0.04 0.04 80 1014.1
20260904045020 80 360 10.0 21.0 0.00 0.04 0.04 80 1014.2
20260904044921 80 360 9.0 21.0 0.00 0.04 0.04 80 1014.1
20260904044823 80 360 9.0 21.0 0.00 0.04 0.04 80 1014.2
20260904044724 80 360 11.0 21.0 0.00 0.04 0.04 80 1014.1
20260904044624 80 360 13.0 21.0 0.00 0.04 0.04 80 1014.1
20260904044544 80 360 13.0 21.0 0.00 0.04 0.04 80 1014.1
20260904044445 80 360 12.0 20.0 0.00 0.04 0.04 80 1014.1
20260904044330 80 360 12.0 16.0 0.00 0.04 0.04 80 1014.1
20260904044230 80 360 11.0 16.0 0.00 0.04 0.04 80 1014.0
20260904044129 80 360 11.0 16.0 0.00 0.04 0.04 80 1014.0